[{"header": {"dx": 0.06612293990616946, "dy": 0.0552356325346848, "nx": 98, "ny": 59, "la1": 35.046912555036876, "la2": 31.78801023549047, "lo1": -121.43107172385933, "lo2": -114.95102361305473, "refTime": "2026040703", "parameterCategory": 1, "parameterNumber": 2}, "data": [8.24, 8.24, 8.24, 8.24, 8.24, 8.24, 8.22, 7.9, 7.59, 7.55, 6.92, 6.57, 6.44, 3.2, 3.95, 2.6, 2.17, 2.24, 1.79, 1.34, 1.79, 2.24, 3.04, 4.92, 5.36, 6.26, 6.71, 6.71, 6.26, 6.21, 4.02, 1.9, 0.0, 0.0, 0.61, 1.16, 1.84, 1.84, 1.84, 2.07, 2.48, 2.98, 4.19, 5.15, 7.47, 9.3, 11.53, 12.51, 12.13, 8.0, 1.86, 1.33, 2.73, 4.46, 5.43, 6.28, 7.21, 7.89, 8.36, 8.36, 8.36, 8.36, 8.36, 7.89, 6.98, 7.01, 7.45, 8.36, 8.36, 9.26, 9.72, 9.72, 9.26, 8.01, 7.89, 8.36, 8.36, 8.38, 8.46, 7.11, 4.87, 4.24, 3.82, 3.53, 3.13, 3.13, 3.13, 3.13, 3.13, 3.58, 3.53, 3.53, 3.97, 3.97, 4.43, 4.87, 4.87, 2.91, 8.24, 8.24, 8.24, 8.24, 7.95, 8.24, 7.61, 7.6, 7.59, 7.27, 6.64, 6.32, 5.82, 4.0, 5.4, 5.2, 2.4, 2.12, 1.86, 1.26, 0.6, 1.6, 2.68, 3.58, 4.92, 5.75, 5.77, 5.75, 4.92, 4.02, 3.13, 1.2, 0.0, 0.0, 0.61, 1.33, 2.07, 2.51, 2.51, 2.79, 2.98, 3.97, 5.2, 6.05, 8.46, 10.12, 11.82, 12.16, 8.67, 2.6, 1.41, 2.2, 3.79, 4.73, 5.05, 6.28, 7.21, 7.89, 8.36, 8.91, 8.91, 8.9, 8.46, 7.89, 7.45, 7.45, 7.89, 7.92, 8.36, 9.26, 9.72, 9.26, 8.91, 8.46, 8.01, 8.01, 8.46, 8.38, 8.46, 7.11, 4.87, 4.24, 3.82, 3.53, 3.13, 3.13, 3.13, 3.13, 3.13, 3.58, 3.53, 3.53, 3.97, 3.97, 4.43, 4.87, 4.87, 2.91, 8.24, 8.24, 8.24, 7.95, 7.95, 7.9, 7.61, 7.6, 6.98, 6.97, 6.65, 5.71, 4.81, 4.8, 4.0, 4.57, 2.4, 2.8, 1.9, 1.24, 0.54, 0.71, 1.49, 2.8, 4.38, 5.75, 4.92, 4.47, 3.58, 3.13, 2.4, 0.61, -0.59, 0.0, 0.61, 1.6, 2.51, 3.48, 3.43, 3.64, 4.94, 5.7, 7.24, 7.79, 9.31, 10.04, 9.56, 6.64, 3.04, 2.2, 3.22, 3.72, 4.12, 5.05, 5.05, 6.28, 6.98, 8.01, 8.46, 8.46, 8.46, 8.01, 8.01, 7.45, 6.55, 6.98, 7.45, 8.36, 8.36, 8.82, 9.72, 9.72, 9.81, 8.94, 7.6, 8.05, 8.05, 9.36, 8.91, 7.6, 5.32, 4.87, 4.41, 3.58, 3.13, 2.68, 3.13, 3.13, 3.13, 3.53, 3.53, 3.53, 3.39, 3.82, 3.97, 4.43, 4.87, 2.91, 8.24, 8.24, 8.24, 8.24, 8.24, 7.61, 7.61, 6.98, 6.98, 6.35, 6.35, 6.01, 4.74, 3.49, 2.86, 3.32, 3.32, 3.2, 2.21, 1.2, 1.2, 0.71, 0.85, 1.2, 1.9, 2.68, 3.58, 4.02, 4.02, 3.74, 2.15, 0.0, -1.47, -0.88, 0.0, 1.66, 2.76, 4.47, 5.21, 5.38, 6.2, 6.87, 7.73, 7.08, 7.64, 7.06, 4.85, 3.45, 4.36, 4.65, 4.75, 5.09, 5.43, 5.43, 5.34, 6.55, 7.45, 8.01, 8.46, 8.49, 8.05, 7.6, 6.66, 5.64, 5.86, 6.79, 7.45, 8.24, 8.71, 9.62, 10.02, 10.62, 10.7, 9.39, 8.05, 7.15, 7.12, 9.39, 9.83, 7.6, 4.92, 4.47, 4.02, 3.58, 3.13, 3.13, 3.13, 3.13, 3.58, 3.53, 3.53, 3.51, 3.39, 3.39, 3.82, 3.98, 4.43, 3.39, 7.95, 8.24, 8.24, 8.24, 8.24, 7.61, 7.61, 6.98, 6.7, 6.35, 6.08, 5.72, 4.95, 3.16, 4.11, 3.79, 3.14, 2.86, 2.15, 1.33, 0.0, 0.0, 0.8, 0.0, 0.45, 1.34, 2.54, 3.58, 3.9, 3.74, 3.07, 0.0, -1.49, -1.52, 0.0, 2.17, 3.14, 4.4, 6.2, 5.86, 5.95, 5.49, 5.09, 5.05, 5.34, 4.92, 4.66, 5.43, 5.43, 5.43, 4.46, 5.43, 5.34, 5.86, 6.51, 7.01, 7.56, 8.01, 8.94, 8.49, 7.6, 6.21, 4.73, 4.4, 6.28, 7.28, 7.71, 7.71, 8.19, 9.54, 10.49, 10.96, 11.09, 10.26, 8.94, 6.71, 5.77, 7.12, 8.49, 8.49, 4.92, 4.02, 4.02, 3.58, 3.13, 3.13, 3.53, 3.53, 3.97, 3.32, 2.91, 3.07, 2.91, 3.39, 3.39, 3.97, 4.43, 3.39, 7.95, 7.95, 7.95, 7.95, 8.24, 7.61, 7.61, 6.98, 6.34, 5.7, 5.72, 5.08, 5.59, 4.43, 3.07, 3.35, 3.07, 3.79, 4.01, 2.51, 0.0, -0.79, -0.88, -0.71, 0.0, 1.0, 1.74, 2.53, 3.93, 3.93, 3.07, 0.73, 0.0, 0.0, 0.7, 1.39, 2.39, 4.6, 5.41, 4.0, 3.0, 2.41, 3.14, 4.93, 6.22, 5.64, 5.46, 5.43, 5.43, 4.81, 4.46, 4.46, 5.34, 5.34, 6.07, 7.56, 7.56, 8.05, 8.94, 8.94, 7.15, 4.87, 4.0, 5.34, 6.36, 7.71, 7.71, 7.21, 6.79, 8.19, 9.58, 10.49, 10.49, 10.93, 10.62, 8.94, 5.81, 4.92, 5.36, 7.6, 4.47, 3.97, 3.82, 3.97, 3.53, 3.32, 3.07, 3.82, 3.82, 3.07, 2.4, 2.4, 3.32, 3.32, 2.91, 3.39, 4.73, 3.82, 7.95, 7.95, 7.95, 7.95, 7.61, 7.33, 6.97, 6.71, 6.33, 5.95, 5.06, 4.66, 4.96, 4.74, 5.37, 3.07, 3.72, 4.16, 4.56, 3.47, 2.26, 0.0, -2.31, -2.31, 0.0, 1.03, 0.95, 2.09, 2.26, 1.47, 1.08, 0.0, 0.0, 0.78, 1.4, 1.36, 2.21, 3.11, 3.99, 2.3, 0.85, 1.2, 2.53, 3.74, 4.02, 4.09, 5.06, 5.77, 5.43, 5.59, 5.75, 3.84, 5.05, 5.86, 6.51, 6.98, 7.11, 7.56, 8.01, 8.46, 6.66, 5.16, 4.24, 4.93, 5.6, 6.64, 7.03, 6.54, 6.28, 7.28, 8.63, 9.26, 9.15, 11.06, 11.08, 10.18, 8.36, 5.2, 4.73, 7.56, 6.26, 4.43, 4.0, 4.0, 3.45, 3.45, 3.07, 3.14, 3.14, 2.21, 1.88, 2.21, 2.53, 2.5, 2.4, 3.39, 4.73, 3.6, 7.95, 7.95, 7.95, 7.95, 7.61, 7.33, 6.97, 6.71, 6.33, 5.69, 5.04, 3.94, 4.34, 4.16, 5.44, 4.07, 4.07, 4.65, 4.07, 3.79, 3.84, 4.24, 2.84, 1.35, 0.0, 0.0, 1.04, 0.99, 0.0, 0.0, 0.0, 0.0, 0.0, 1.0, 2.06, 2.06, 1.4, 2.23, 2.8, 1.88, 0.63, 0.0, 0.95, 1.2, 1.6, 1.49, 2.79, 5.46, 6.08, 6.7, 3.84, 4.46, 5.43, 6.4, 6.79, 7.21, 7.45, 7.01, 8.46, 8.01, 6.98, 5.16, 3.74, 3.84, 4.01, 5.43, 7.07, 7.89, 6.98, 7.11, 8.46, 9.36, 9.81, 10.26, 10.26, 9.74, 9.11, 7.98, 8.19, 9.72, 10.26, 6.67, 4.52, 3.72, 3.49, 2.84, 3.14, 2.84, 2.51, 1.84, 1.61, 1.84, 1.61, 1.9, 2.15, 3.6, 4.52, 3.6, 7.61, 7.95, 7.95, 7.95, 7.61, 7.61, 6.97, 6.97, 6.33, 5.67, 5.23, 4.05, 3.39, 3.25, 4.2, 3.91, 4.12, 4.46, 2.98, 1.88, 2.6, 6.17, 8.01, 6.51, 3.43, 1.98, 0.96, 0.0, -1.03, 0.0, 0.0, 0.0, 0.0, 0.0, 0.74, 1.45, 1.98, 0.96, 0.7, 0.71, 0.0, -0.0, 0.45, 0.45, 0.89, 1.2, 2.12, 2.8, 5.34, 6.07, 7.07, 5.09, 6.07, 6.4, 6.54, 7.21, 7.28, 7.89, 8.36, 8.01, 6.55, 4.66, 2.86, 2.98, 3.9, 6.06, 8.0, 8.4, 6.66, 6.71, 7.6, 8.49, 9.83, 9.83, 9.36, 8.91, 8.46, 8.82, 9.72, 11.09, 11.98, 8.49, 5.78, 4.3, 4.0, 3.14, 2.84, 2.51, 2.51, 1.84, 1.33, 0.61, 0.61, 0.65, 2.21, 3.35, 4.93, 3.72, 7.61, 7.61, 7.95, 7.95, 7.61, 7.61, 7.61, 6.7, 6.31, 6.31, 5.86, 5.8, 5.62, 4.1, 3.19, 3.32, 4.1, 4.1, 3.29, 2.28, 3.21, 4.36, 6.98, 7.47, 5.72, 4.46, 2.76, 0.79, 0.0, 0.0, 1.07, 0.0, 0.0, -0.79, -1.03, 0.0, 1.6, 0.65, 0.8, 0.95, 0.89, 0.63, 1.2, 0.89, 1.34, 1.79, 1.79, 2.24, 3.07, 5.34, 5.46, 6.08, 6.08, 6.44, 6.44, 6.94, 7.28, 7.89, 8.01, 7.12, 5.59, 3.84, 3.68, 3.33, 4.03, 4.74, 7.03, 7.28, 5.44, 5.31, 6.26, 7.6, 8.49, 8.49, 8.91, 8.94, 8.49, 8.49, 8.94, 10.28, 11.18, 12.05, 9.36, 7.15, 4.92, 3.97, 3.14, 2.51, 1.84, 1.16, 0.53, 0.0, 0.0, 0.0, 1.8, 3.16, 4.66, 3.72, 7.61, 7.61, 7.95, 7.95, 7.61, 7.61, 7.33, 6.96, 6.96, 6.29, 6.27, 6.9, 7.55, 6.46, 5.06, 4.55, 5.02, 4.1, 3.52, 2.91, 3.2, 3.43, 5.01, 5.83, 5.3, 4.32, 2.98, 0.66, 0.0, 0.0, 0.0, 0.0, -0.63, -0.6, -0.61, 0.0, 0.0, 0.0, 1.2, 2.68, 3.07, 2.4, 2.12, 3.58, 3.58, 1.79, 1.79, 2.24, 2.6, 2.5, 3.84, 4.81, 5.82, 6.07, 6.4, 6.79, 7.89, 8.01, 7.15, 5.31, 3.16, 3.0, 3.4, 3.09, 3.15, 3.8, 5.49, 6.32, 6.44, 6.4, 7.21, 7.92, 7.92, 7.57, 8.05, 8.49, 8.02, 7.45, 7.89, 8.8, 9.36, 10.28, 10.73, 10.26, 7.57, 5.36, 3.98, 3.07, 1.9, 1.2, 0.63, 0.0, 0.0, 0.0, 1.13, 2.79, 4.12, 3.78, 7.61, 7.61, 7.95, 8.24, 8.24, 7.6, 7.6, 7.6, 6.94, 6.94, 6.92, 6.9, 7.55, 8.49, 8.24, 7.24, 5.7, 5.2, 5.28, 5.15, 5.34, 4.52, 4.01, 3.93, 3.39, 3.3, 1.1, 0.0, 0.0, -0.63, -0.95, -0.89, -1.2, -1.34, -0.32, 0.0, 0.0, 0.45, 1.34, 2.17, 2.8, 2.5, 2.6, 3.82, 3.13, 1.34, 1.2, 1.58, 1.49, 1.9, 2.23, 2.8, 3.51, 4.87, 5.77, 6.26, 7.6, 7.6, 4.92, 1.86, 0.78, 2.44, 3.15, 0.77, -0.0, 1.62, 4.71, 6.95, 7.69, 8.14, 8.48, 8.48, 8.24, 7.45, 7.56, 8.05, 7.56, 6.98, 7.76, 7.76, 6.79, 7.56, 8.49, 10.26, 8.91, 8.02, 6.71, 4.02, 2.68, 2.17, 1.7, 1.34, 0.6, 0.0, 1.16, 2.51, 3.43, 3.72, 7.61, 7.61, 7.95, 8.24, 7.96, 7.96, 7.6, 7.6, 7.59, 7.59, 7.57, 7.55, 8.2, 8.85, 9.5, 8.85, 6.95, 6.04, 6.69, 7.33, 7.96, 8.53, 7.9, 6.41, 6.16, 6.26, 5.81, 4.92, 3.54, 0.89, -0.95, -1.34, -1.2, -0.63, -0.0, -0.0, -0.0, -0.0, 0.6, 1.6, 1.86, 2.4, 2.4, 2.24, 1.34, 0.45, -0.0, -0.0, 0.95, 1.79, 1.7, 1.86, 2.86, 4.12, 4.98, 5.4, 4.38, 6.71, 4.02, -0.0, -0.0, 0.8, 1.52, -0.0, -0.78, -0.0, 2.12, 5.0, 7.03, 7.6, 8.0, 8.14, 8.4, 8.36, 8.49, 8.49, 7.45, 7.28, 7.14, 7.06, 6.54, 6.28, 7.76, 8.19, 8.94, 8.94, 8.05, 5.36, 3.39, 2.68, 2.4, 2.17, 1.79, 1.2, 1.86, 2.68, 3.6, 3.2, 7.61, 7.61, 8.24, 8.24, 7.96, 7.96, 7.96, 7.59, 7.59, 7.59, 7.57, 7.55, 8.2, 8.57, 9.22, 9.19, 8.5, 8.15, 8.15, 8.5, 9.66, 10.96, 11.82, 11.74, 12.02, 12.07, 12.07, 11.18, 9.83, 6.68, 2.49, 0.63, 0.89, 0.45, -0.0, -0.0, -0.0, 0.57, 0.95, 1.79, 1.79, 1.79, 1.7, 3.39, 1.9, -0.0, -0.0, -0.0, 0.45, 0.95, 1.26, 1.98, 2.99, 1.6, 1.74, 1.2, 0.71, 3.47, 3.9, -0.0, -2.29, -1.01, -0.0, -0.0, -0.0, -0.7, -0.0, 2.21, 6.79, 5.09, 7.06, 8.05, 9.11, 9.39, 9.36, 9.26, 7.42, 6.28, 6.28, 5.86, 5.75, 6.0, 7.2, 8.14, 8.24, 9.26, 8.91, 5.81, 3.82, 3.07, 2.5, 2.4, 2.17, 1.79, 2.24, 2.63, 3.07, 2.68, 7.61, 7.61, 8.24, 7.96, 8.24, 8.24, 8.24, 7.96, 7.96, 8.23, 7.96, 8.22, 8.2, 8.85, 8.85, 9.21, 9.5, 9.13, 9.08, 9.37, 10.23, 11.62, 12.79, 13.81, 14.34, 14.57, 14.26, 13.85, 12.95, 10.22, 6.16, 2.49, 2.68, 2.68, 1.9, -0.0, 1.27, 0.57, 3.2, 1.79, 2.12, 4.09, 4.09, 3.2, 2.24, -0.0, -1.27, -0.0, 0.89, 0.0, 1.0, 2.53, 2.21, 1.2, 0.45, 0.0, 0.0, 2.98, 4.09, -0.0, -2.3, -0.76, -0.0, -0.0, -0.0, -0.0, -0.0, 0.89, 1.26, 2.23, 4.81, 8.19, 10.28, 10.16, 9.33, 7.89, 4.41, 4.02, 4.02, 4.47, 4.47, 4.87, 6.11, 6.36, 6.13, 8.0, 7.47, 4.43, 3.07, 2.4, 2.4, 2.91, 2.6, 2.17, 2.17, 2.17, 1.58, 1.58, 7.61, 7.89, 7.96, 8.24, 8.24, 8.24, 8.24, 7.96, 8.23, 8.23, 8.22, 8.22, 8.86, 8.58, 8.58, 9.21, 9.82, 10.4, 10.3, 10.01, 10.51, 11.5, 12.79, 13.62, 14.48, 14.93, 15.46, 15.15, 14.74, 13.4, 10.67, 6.94, 3.39, 4.47, 3.39, 0.71, 0.87, 1.6, 3.82, 4.02, 1.86, 2.4, 4.4, 4.02, 2.68, -0.0, -1.41, -1.4, -0.0, 1.34, 1.9, 1.6, 1.79, 1.6, 1.2, 1.34, 1.49, 3.22, 2.54, 1.49, -0.0, -0.0, 1.27, 2.8, 0.89, 0.89, 0.0, 0.45, -0.0, 1.49, 4.87, 8.82, 10.75, 10.15, 7.67, 3.07, 2.21, 4.19, 5.05, 4.93, 5.86, 6.51, 6.66, 6.71, 6.21, 3.95, 3.49, 2.63, 2.24, 1.7, 2.17, 2.4, 1.86, 2.15, 2.5, 1.84, 1.13, 1.13, 7.6, 7.96, 8.24, 8.24, 8.24, 8.24, 8.24, 7.96, 8.23, 8.23, 8.22, 8.59, 8.59, 8.86, 8.86, 8.86, 9.82, 10.72, 10.94, 10.8, 10.96, 11.75, 12.11, 13.09, 14.0, 15.02, 16.0, 16.89, 16.5, 16.05, 14.2, 11.4, 7.74, 6.36, 1.79, 1.26, 1.58, 2.12, 2.68, 5.2, 3.48, 1.24, 3.82, 2.24, 2.68, -0.0, -1.27, -0.0, 1.4, 1.6, 2.53, 2.53, 2.84, 3.72, 4.24, 4.92, 6.14, 6.71, 5.81, 3.68, 3.45, 2.4, 3.72, 4.24, 4.47, 2.12, 0.8, 0.0, 0.45, 2.54, 7.4, 8.58, 9.3, 7.06, 1.9, 0.54, 2.47, 5.59, 6.7, 6.7, 6.7, 7.89, 8.19, 8.38, 8.49, 5.81, 2.6, 1.79, 1.34, 1.79, 2.68, 2.4, 1.2, 1.16, 1.8, 1.23, 0.63, 0.63, 7.6, 7.96, 8.24, 8.24, 8.24, 8.24, 8.24, 7.96, 8.23, 8.23, 8.87, 8.87, 8.59, 8.59, 8.87, 8.87, 10.13, 10.43, 10.65, 11.07, 11.88, 12.28, 12.33, 12.51, 13.75, 15.6, 16.83, 17.71, 17.71, 17.18, 15.82, 13.54, 10.66, 7.26, 3.98, 2.24, 1.79, 2.54, 4.4, 3.6, 2.23, 1.58, 1.6, 1.79, 2.8, -0.0, -0.0, 1.27, 2.84, 3.16, 3.48, 3.48, 3.48, 4.09, 4.8, 5.7, 6.61, 6.79, 5.69, 4.75, 4.47, 5.01, 4.8, 4.77, 5.36, 2.68, 1.86, 0.71, 0.98, 4.22, 6.64, 6.35, 5.6, 3.32, 2.12, 1.4, 2.79, 6.64, 8.0, 7.47, 7.21, 7.45, 8.46, 8.94, 7.15, 5.36, 3.58, 2.17, 0.89, 0.45, 0.95, 1.88, 1.13, 1.27, 1.41, 1.23, 0.7, 0.7, 7.6, 7.96, 8.24, 8.24, 8.24, 8.24, 8.24, 8.24, 8.23, 8.59, 8.59, 8.87, 8.87, 8.87, 8.23, 8.66, 8.87, 9.5, 9.66, 11.22, 12.79, 13.99, 12.56, 11.34, 11.62, 15.04, 14.42, 16.03, 16.03, 14.72, 14.42, 12.78, 10.18, 6.79, 3.87, 2.91, 3.72, 4.94, 5.46, 4.4, 2.8, 2.6, 2.24, 4.92, 4.8, 3.79, 3.48, 4.09, 3.72, 3.72, 3.79, 3.79, 3.79, 4.8, 5.2, 5.75, 5.75, 5.59, 5.37, 5.93, 5.75, 5.81, 5.7, 2.68, 3.13, 3.04, 2.4, 2.86, 4.01, 4.89, 6.61, 8.91, 11.84, 12.3, 9.72, 5.81, 4.47, 6.66, 8.49, 8.49, 7.56, 8.36, 8.63, 7.81, 6.55, 5.31, 3.97, 1.79, 0.45, -1.86, -0.53, 0.59, 2.0, 1.27, 1.27, 1.27, 0.66, 0.66, 7.6, 7.96, 7.96, 7.96, 8.24, 8.24, 8.24, 8.24, 8.58, 8.59, 8.59, 8.59, 8.59, 8.87, 8.59, 8.87, 8.24, 7.6, 7.08, 8.93, 12.52, 14.13, 13.09, 11.87, 11.49, 12.49, 13.15, 13.2, 13.62, 12.79, 11.62, 10.18, 7.26, 4.19, 2.6, 2.12, 2.68, 4.4, 5.99, 6.16, 6.23, 6.26, 6.61, 6.79, 6.28, 6.8, 5.81, 5.2, 4.4, 4.09, 4.09, 4.46, 4.29, 4.65, 2.5, 3.14, 6.7, 3.79, 4.19, 5.75, 5.81, 5.26, 5.36, 5.81, 3.04, 2.6, 1.79, 2.24, 3.13, 5.86, 8.55, 12.29, 16.54, 18.5, 16.54, 11.86, 8.3, 7.68, 8.63, 8.4, 8.4, 8.91, 8.91, 7.28, 6.07, 5.2, 3.53, 2.24, -0.0, -1.84, -1.13, -0.0, 1.27, 1.33, 0.61, 0.61, 0.51, 0.51, 7.6, 7.6, 7.96, 7.96, 7.96, 7.96, 8.24, 8.24, 8.58, 8.87, 8.87, 8.59, 8.59, 8.87, 9.5, 8.87, 7.96, 7.6, 7.33, 9.6, 12.39, 12.93, 12.3, 12.27, 12.6, 13.15, 12.37, 11.72, 10.83, 9.92, 9.11, 7.87, 5.7, 3.39, 1.7, 1.79, 2.63, 4.44, 5.78, 6.68, 7.15, 7.13, 7.51, 7.74, 7.09, 7.4, 6.36, 5.81, 5.2, 4.77, 4.77, 4.09, 4.4, 4.29, 4.43, 2.84, 3.64, 4.36, 5.75, 5.2, 4.92, 4.92, 5.36, 5.7, 2.24, 1.2, -0.0, -0.0, 1.47, 3.69, 6.42, 10.28, 14.54, 17.15, 16.09, 13.57, 9.08, 8.29, 7.73, 7.64, 8.24, 8.91, 8.67, 8.02, 7.56, 4.47, 3.13, 3.07, 3.14, 0.59, -0.0, -0.0, 1.13, 1.13, 0.61, 0.61, -0.0, -0.0, 7.6, 7.6, 7.6, 7.96, 7.96, 7.96, 7.96, 8.24, 8.58, 8.58, 8.87, 8.87, 8.87, 8.59, 9.21, 9.21, 8.58, 8.23, 9.49, 11.4, 12.01, 11.03, 10.4, 11.33, 13.09, 14.03, 13.48, 12.33, 11.08, 10.14, 9.77, 9.37, 7.97, 6.16, 4.44, 4.02, 4.47, 5.36, 5.81, 6.26, 6.71, 7.15, 7.13, 7.51, 7.4, 6.79, 7.31, 6.14, 5.26, 4.77, 4.24, 4.24, 4.09, 3.79, 3.49, 3.45, 2.35, 3.8, 5.69, 4.4, 1.79, 2.24, 3.13, 2.68, 1.6, -0.0, -0.81, -0.66, -0.0, -0.0, 1.1, 5.46, 10.87, 13.53, 8.3, 8.19, 8.51, 8.43, 7.25, 6.94, 7.59, 7.92, 7.98, 8.01, 8.05, 6.26, 3.58, 3.13, 3.6, 3.43, 2.51, 1.16, 1.13, 1.13, 0.59, 0.59, -0.0, -0.0, 7.33, 7.33, 7.33, 8.24, 8.24, 8.24, 8.24, 7.96, 8.58, 8.58, 8.58, 8.87, 8.87, 9.19, 9.5, 9.19, 9.5, 9.5, 10.76, 12.3, 12.51, 11.16, 9.94, 10.59, 12.27, 13.62, 13.82, 13.51, 12.98, 12.75, 12.4, 12.02, 10.67, 9.32, 8.03, 7.15, 6.71, 7.15, 7.15, 7.6, 7.6, 7.6, 7.6, 7.58, 7.07, 6.51, 7.52, 6.26, 4.92, 4.47, 4.24, 3.72, 3.72, 2.4, 2.6, 1.23, 0.7, 2.2, 4.22, 4.19, 2.24, 1.79, 2.12, 1.34, -0.0, -0.7, -0.0, -0.0, -0.65, -0.71, -0.8, 0.63, 10.28, 8.05, 2.53, 1.41, 4.12, 5.6, 6.4, 6.4, 6.44, 6.88, 6.7, 7.03, 7.47, 6.55, 3.82, 3.07, 3.07, 4.74, 4.41, 2.53, 1.84, 1.13, 0.66, 0.59, 0.61, 0.61, 7.61, 7.61, 7.61, 7.61, 8.24, 8.24, 8.24, 8.24, 8.56, 8.87, 8.87, 8.58, 9.19, 9.19, 9.19, 9.19, 9.5, 10.13, 11.36, 11.96, 11.87, 11.44, 10.96, 11.34, 12.03, 12.95, 13.31, 13.62, 13.99, 13.73, 14.0, 13.65, 12.84, 11.57, 10.22, 9.37, 8.92, 8.94, 8.94, 8.94, 8.94, 8.49, 8.49, 8.05, 7.58, 6.68, 8.05, 6.71, 4.92, 4.24, 4.09, 4.09, 3.48, 2.73, 1.19, 1.3, -0.0, -0.0, 1.6, 5.24, 4.66, 2.12, 0.63, -0.57, -1.41, -0.78, -0.0, -0.0, -0.0, -0.71, -0.45, 6.32, 10.02, 9.39, 6.61, 2.24, 1.27, 2.09, 4.15, 4.94, 5.71, 6.53, 6.87, 6.95, 6.68, 6.06, 3.49, 2.24, 1.88, 1.94, 4.36, 2.73, 2.0, 1.8, 1.27, 1.13, 1.16, 1.16, 7.61, 7.61, 7.61, 7.61, 7.95, 7.95, 8.24, 8.24, 8.56, 8.56, 8.87, 8.87, 9.48, 9.19, 9.19, 9.19, 9.8, 10.43, 11.03, 11.33, 11.28, 11.72, 11.99, 12.16, 12.42, 12.28, 13.02, 13.12, 13.32, 13.99, 13.73, 14.0, 13.65, 12.75, 11.49, 10.6, 10.22, 9.82, 9.82, 9.82, 9.83, 9.39, 8.94, 8.94, 8.49, 8.05, 8.03, 7.6, 6.71, 5.79, 5.24, 5.81, 4.8, 3.48, 2.73, 1.55, 1.41, -0.0, 0.95, 3.04, 6.88, 3.13, 0.0, -1.49, -1.6, -0.78, -0.0, -0.0, -0.0, -0.0, 1.2, 5.43, 10.52, 12.05, 13.05, 11.95, 8.55, 3.13, 2.99, 3.06, 4.84, 6.36, 7.67, 7.8, 6.42, 2.88, 1.7, 1.16, 0.59, -0.0, 0.76, 2.82, 2.8, 2.73, 2.79, 2.07, 1.84, 1.84, 7.61, 7.61, 7.61, 7.61, 7.61, 7.95, 7.95, 8.24, 8.56, 8.56, 8.56, 8.87, 9.17, 9.48, 9.48, 9.48, 10.12, 10.72, 10.99, 11.28, 10.94, 11.44, 12.27, 12.54, 12.56, 12.79, 12.62, 12.83, 12.83, 13.09, 13.26, 13.41, 13.54, 12.64, 11.86, 10.94, 10.58, 10.58, 10.66, 10.22, 10.27, 9.82, 9.39, 9.39, 8.94, 8.94, 8.94, 8.94, 8.49, 7.6, 7.13, 6.23, 6.14, 5.2, 4.09, 2.73, 3.16, 2.21, 1.58, 1.34, 3.58, 7.08, 2.54, -0.0, -0.81, -0.0, -0.0, -0.0, -0.0, 0.6, 1.86, 4.98, 8.67, 12.52, 13.67, 13.23, 13.33, 11.58, 4.43, 2.29, 3.07, 5.71, 7.77, 7.67, 5.59, 2.15, 1.88, 0.66, -0.0, -0.0, -0.0, 2.9, 3.91, 4.07, 4.12, 3.16, 2.51, 2.51, 7.33, 7.33, 7.61, 7.61, 7.61, 8.24, 8.24, 8.24, 8.85, 8.85, 8.56, 9.17, 9.17, 9.17, 9.48, 9.77, 10.09, 10.4, 10.94, 10.94, 10.94, 11.44, 11.8, 12.27, 12.7, 12.79, 13.02, 12.83, 12.83, 12.6, 12.78, 12.94, 12.51, 12.18, 11.84, 10.94, 10.47, 10.47, 10.58, 10.58, 10.22, 10.22, 9.82, 9.37, 9.39, 9.39, 9.39, 9.39, 8.94, 8.49, 7.6, 6.71, 6.26, 5.36, 4.38, 2.12, 4.24, 3.82, 0.95, 0.63, 1.79, 5.81, 5.81, 1.49, -0.0, -0.0, -0.0, 0.57, 0.6, 1.79, 2.12, 4.4, 7.2, 9.54, 10.25, 10.95, 11.95, 11.75, 7.56, 2.07, 1.52, 4.39, 6.95, 7.19, 4.02, 1.79, 1.0, 0.66, -0.0, -0.0, -0.0, 1.8, 5.3, 5.72, 5.09, 4.12, 3.16, 3.16, 7.61, 7.61, 7.61, 7.61, 7.61, 7.93, 7.93, 8.24, 8.24, 8.85, 8.85, 9.13, 9.46, 9.17, 9.48, 9.77, 10.36, 10.69, 10.69, 11.23, 11.23, 11.44, 11.8, 12.27, 12.54, 12.56, 12.79, 12.62, 12.83, 12.6, 12.78, 12.94, 12.51, 12.18, 11.84, 10.94, 10.94, 10.5, 10.6, 10.6, 10.14, 10.22, 9.82, 9.39, 9.39, 9.39, 9.83, 9.83, 9.37, 8.47, 8.05, 7.15, 6.71, 5.81, 4.92, 2.68, 4.47, 4.02, 0.95, 0.6, 1.34, 4.85, 5.77, 2.21, -0.0, 1.1, 0.76, 1.2, 0.95, 1.6, 2.6, 5.16, 6.64, 6.44, 6.0, 8.19, 9.72, 8.49, 5.36, 2.4, 0.57, 1.61, 3.76, 4.66, 1.84, 0.89, -0.0, -0.0, 0.59, 1.33, 1.16, 1.88, 4.74, 6.35, 6.0, 5.31, 4.09, 4.09, 7.61, 7.61, 7.61, 7.61, 7.61, 7.93, 7.93, 7.93, 8.24, 8.53, 8.85, 9.13, 9.13, 9.46, 9.72, 10.06, 10.36, 10.36, 10.65, 10.65, 11.23, 11.23, 11.72, 11.72, 12.16, 12.16, 12.03, 12.28, 12.83, 13.02, 12.78, 12.78, 12.94, 12.64, 11.74, 11.4, 10.94, 10.94, 11.04, 10.6, 10.6, 10.22, 9.32, 8.9, 8.05, 8.42, 9.83, 9.82, 8.87, 8.92, 8.03, 7.58, 6.68, 6.23, 5.34, 4.44, 4.92, 4.02, 1.2, 1.2, 1.79, 4.24, 3.07, 1.2, 0.66, 1.6, 2.47, 1.49, 0.63, 0.57, 2.23, 6.07, 8.8, 7.6, 7.59, 8.46, 8.3, 6.07, 3.82, 3.07, 0.54, 0.0, 0.54, 0.5, 0.54, 0.95, 0.89, 0.63, 1.26, 1.49, 1.26, 1.9, 3.45, 5.95, 6.52, 5.95, 5.2, 5.2, 7.61, 7.61, 7.61, 7.61, 7.61, 7.93, 7.93, 7.93, 7.93, 8.53, 8.53, 9.13, 9.13, 9.46, 9.72, 10.06, 10.3, 10.65, 10.65, 10.65, 10.88, 11.23, 11.16, 11.35, 11.62, 11.62, 11.88, 11.88, 12.11, 12.41, 13.02, 12.78, 12.94, 12.51, 12.18, 11.71, 11.4, 11.4, 10.94, 11.04, 10.6, 10.66, 10.22, 8.87, 8.03, 8.49, 10.28, 9.32, 6.97, 6.16, 5.7, 5.7, 6.61, 6.16, 5.7, 5.24, 4.77, 4.34, 2.68, 1.79, 2.17, 3.32, 2.24, 0.65, 0.76, 0.76, 0.66, 2.0, 1.7, 1.24, 2.15, 4.4, 8.49, 10.73, 10.4, 10.9, 9.56, 6.68, 4.46, 4.43, 3.53, 1.34, 0.0, 0.0, 1.0, 2.91, 3.58, 3.13, 2.17, 1.34, 1.34, 1.86, 3.32, 5.43, 6.8, 6.8, 6.54, 6.54, 7.61, 7.61, 7.61, 7.61, 7.61, 8.22, 8.22, 8.22, 8.22, 8.82, 8.82, 8.53, 9.13, 9.13, 9.72, 10.06, 10.3, 10.3, 10.3, 10.3, 11.16, 11.16, 11.16, 11.44, 11.62, 11.24, 11.5, 11.75, 11.92, 12.41, 12.83, 13.09, 12.78, 12.51, 12.04, 11.71, 11.28, 11.4, 10.94, 11.04, 11.04, 10.6, 10.14, 9.23, 8.33, 9.06, 10.45, 8.79, 6.6, 4.89, 4.88, 4.44, 4.44, 5.24, 4.8, 4.6, 4.6, 4.6, 4.34, 2.6, 3.47, 2.6, 1.86, 1.24, 1.58, 0.8, -0.0, 0.6, 3.04, 3.47, 1.88, 1.26, 3.04, 10.45, 14.3, 13.57, 12.13, 9.92, 7.67, 7.47, 7.48, 4.73, 3.2, 2.91, 3.98, 5.36, 7.13, 8.02, 5.36, 2.24, 1.34, 1.7, 3.07, 4.73, 6.85, 7.56, 7.06, 7.06, 7.32, 7.32, 7.32, 7.32, 7.6, 7.9, 8.22, 8.22, 8.22, 8.5, 8.82, 8.82, 8.82, 9.13, 9.72, 9.72, 10.06, 10.59, 10.59, 10.59, 10.59, 10.8, 10.8, 11.07, 11.07, 11.34, 10.96, 10.83, 11.2, 11.31, 12.33, 12.41, 12.6, 12.3, 12.04, 11.74, 11.71, 11.28, 11.37, 10.94, 11.04, 10.6, 10.58, 9.68, 9.57, 9.86, 10.81, 10.22, 8.47, 6.68, 6.23, 5.34, 4.89, 4.44, 3.98, 3.87, 3.7, 4.11, 4.11, 4.19, 3.47, 2.24, 1.58, 1.86, 1.86, 1.7, 0.45, 0.0, 2.23, 4.15, 2.6, -0.0, -0.0, 5.81, 14.75, 15.93, 12.39, 9.3, 8.32, 8.93, 10.37, 9.81, 8.05, 6.26, 7.13, 8.42, 10.22, 10.14, 8.91, 4.87, 2.24, 1.79, 2.68, 4.02, 7.01, 7.33, 7.33, 7.33, 7.32, 7.32, 7.6, 7.6, 7.6, 7.9, 7.9, 8.22, 8.22, 8.5, 8.5, 8.82, 8.82, 9.08, 9.66, 10.01, 10.01, 10.01, 10.23, 10.23, 10.59, 10.8, 11.07, 11.07, 11.07, 10.96, 10.96, 10.96, 10.83, 11.2, 10.4, 11.12, 11.21, 11.81, 12.04, 11.61, 11.71, 11.28, 11.4, 10.94, 10.94, 10.94, 10.58, 10.14, 10.04, 10.47, 10.5, 10.6, 10.22, 9.32, 7.97, 7.51, 6.61, 5.7, 5.33, 4.43, 3.53, 2.91, 3.39, 3.87, 3.87, 2.0, 3.82, 2.12, 1.86, 1.7, 1.34, 0.89, 1.86, 3.04, 3.07, 1.49, 0.63, 3.74, 13.05, 17.27, 11.95, 4.81, 2.86, 6.11, 9.81, 11.18, 11.54, 11.54, 9.77, 10.71, 11.16, 10.67, 9.58, 4.3, 3.04, 2.24, 2.68, 3.58, 5.36, 7.56, 7.57, 7.57, 7.6, 7.6, 7.6, 7.6, 7.6, 7.9, 7.9, 8.22, 8.22, 8.22, 8.5, 8.82, 8.82, 9.08, 9.42, 9.66, 9.66, 10.01, 10.23, 10.23, 10.51, 10.51, 10.51, 10.7, 10.7, 10.79, 10.79, 10.96, 11.5, 11.08, 10.4, 10.21, 10.42, 10.91, 11.56, 11.56, 11.28, 11.28, 11.28, 11.37, 10.94, 10.94, 10.5, 10.47, 10.47, 10.47, 10.5, 10.6, 10.58, 9.68, 9.23, 8.33, 7.87, 6.97, 6.61, 5.7, 4.89, 3.98, 2.63, 3.07, 3.58, 2.68, 2.8, 3.2, 1.6, 1.2, 1.2, 0.89, 1.34, 1.79, 2.6, 2.23, 2.68, 7.6, 12.94, 17.0, 14.28, 7.56, 5.64, 8.02, 10.73, 12.07, 12.96, 13.41, 13.84, 11.18, 10.28, 8.43, 7.76, 5.02, 4.3, 3.95, 3.58, 4.41, 4.88, 7.15, 7.6, 7.6, 7.6, 7.6, 7.6, 7.6, 7.6, 7.9, 7.9, 7.9, 8.22, 8.22, 8.5, 8.5, 8.82, 9.08, 9.08, 9.66, 9.94, 9.94, 10.51, 10.51, 10.51, 10.51, 10.51, 10.51, 10.79, 10.79, 10.79, 10.96, 10.96, 11.36, 10.91, 10.71, 10.62, 10.91, 10.91, 11.08, 11.08, 11.24, 10.81, 10.81, 10.94, 10.94, 10.5, 10.47, 10.5, 10.94, 10.94, 10.94, 10.47, 10.01, 9.54, 8.64, 8.17, 7.69, 7.26, 6.94, 6.04, 5.24, 3.98, 1.86, 1.7, 2.24, 2.68, 2.8, 2.8, 2.8, 1.2, 1.34, 1.34, 1.34, 1.34, 1.79, 5.36, 10.62, 13.29, 15.01, 15.12, 13.99, 13.99, 14.11, 13.86, 13.69, 13.56, 13.56, 13.25, 9.37, 7.58, 7.45, 5.64, 5.67, 4.88, 4.47, 4.47, 4.87, 4.73, 5.51, 7.12, 7.12, 7.6, 7.6, 7.6, 7.6, 7.6, 7.6, 7.9, 7.9, 7.9, 8.22, 8.5, 8.5, 8.5, 8.78, 9.37, 9.37, 9.94, 9.94, 9.94, 10.51, 10.51, 10.51, 10.51, 10.41, 10.41, 10.41, 10.41, 10.58, 10.83, 10.83, 11.08, 10.91, 11.12, 10.71, 10.91, 10.49, 10.66, 10.66, 10.81, 10.81, 10.81, 10.5, 10.47, 10.58, 10.6, 10.94, 11.4, 11.24, 10.77, 9.86, 9.39, 8.91, 8.0, 7.51, 7.09, 6.79, 6.3, 5.99, 5.09, 2.68, 1.86, 1.34, 2.24, 1.2, 1.6, 3.82, 1.7, 1.79, 1.34, 1.34, 1.2, 1.34, 3.58, 10.26, 13.41, 12.94, 12.94, 14.11, 15.47, 16.09, 15.14, 13.12, 11.09, 9.89, 8.84, 7.6, 6.67, 5.32, 5.32, 5.78, 5.36, 4.92, 4.87, 4.66, 5.02, 5.94, 6.58, 6.58, 7.6, 7.6, 7.6, 7.6, 7.6, 7.6, 7.9, 7.9, 7.9, 8.22, 8.5, 8.5, 8.78, 8.78, 9.37, 9.37, 9.59, 9.94, 9.94, 10.15, 10.15, 10.15, 10.41, 10.41, 10.41, 10.41, 10.41, 10.68, 10.68, 10.68, 10.68, 10.68, 10.91, 10.91, 10.71, 10.91, 10.49, 10.6, 10.6, 10.34, 10.34, 10.34, 9.57, 9.7, 9.32, 10.6, 11.28, 11.13, 10.66, 10.18, 9.21, 8.72, 8.22, 7.93, 7.09, 6.6, 6.51, 6.3, 4.8, 3.35, 2.68, 1.86, 2.24, 1.34, 1.79, 4.02, 1.79, 1.79, 1.79, 1.2, 1.2, 0.89, 2.12, 8.67, 12.49, 12.87, 11.23, 12.14, 14.7, 15.53, 14.31, 11.28, 8.71, 7.01, 5.78, 6.26, 7.15, 5.81, 5.36, 5.36, 5.36, 4.92, 4.43, 5.16, 4.8, 5.2, 5.6, 6.36, 7.3, 7.3, 7.3, 7.3, 7.6, 7.6, 7.9, 7.9, 7.9, 7.9, 8.5, 8.78, 8.78, 8.78, 9.02, 9.37, 9.37, 9.59, 9.94, 9.94, 10.15, 10.41, 10.41, 10.41, 10.41, 10.41, 10.41, 10.68, 10.3, 10.3, 10.55, 10.55, 10.68, 10.91, 10.91, 10.71, 10.91, 10.42, 10.42, 10.18, 10.18, 9.86, 8.96, 8.8, 9.32, 11.04, 11.56, 11.39, 10.91, 9.92, 9.42, 8.72, 8.3, 7.81, 7.31, 7.01, 6.51, 6.1, 5.08, 4.17, 3.72, 2.68, 3.13, 1.34, 2.24, 3.58, 3.13, 1.79, 1.79, 1.6, 1.2, 0.45, 0.89, 6.26, 12.96, 13.39, 10.32, 10.8, 13.33, 14.79, 12.92, 10.37, 9.28, 8.46, 7.6, 7.15, 7.15, 6.26, 5.36, 5.36, 4.92, 4.88, 4.3, 5.16, 4.4, 4.66, 4.66, 5.6, 6.98, 6.98, 7.3, 7.3, 7.3, 7.6, 7.9, 7.9, 7.9, 7.9, 8.19, 8.78, 8.78, 8.78, 8.78, 9.02, 9.37, 9.37, 9.59, 9.94, 10.23, 10.41, 10.41, 10.41, 10.41, 10.41, 10.41, 10.3, 10.3, 10.3, 10.55, 10.55, 10.55, 10.8, 10.4, 10.4, 10.71, 10.62, 10.42, 10.42, 10.0, 9.7, 9.21, 8.22, 9.33, 11.28, 12.3, 10.91, 10.11, 9.2, 9.01, 8.91, 8.51, 7.6, 7.31, 6.8, 6.28, 5.37, 5.47, 4.93, 4.0, 3.35, 2.91, 3.39, 3.13, 3.58, 1.7, 1.7, 1.6, 1.7, 1.34, 0.89, 0.8, 2.8, 9.83, 11.86, 11.98, 10.62, 11.45, 11.99, 10.79, 9.62, 9.36, 8.94, 7.57, 7.12, 7.48, 7.01, 5.32, 6.22, 4.92, 4.47, 4.43, 4.73, 4.4, 4.09, 3.72, 4.66, 6.98, 6.98, 7.3, 7.3, 7.3, 7.3, 7.6, 7.9, 7.9, 8.19, 8.19, 8.45, 8.78, 8.78, 8.78, 9.02, 9.02, 9.37, 9.59, 9.86, 10.23, 10.23, 10.23, 10.41, 10.41, 10.41, 10.04, 10.3, 10.3, 10.3, 9.92, 10.16, 10.16, 10.16, 10.4, 10.4, 10.4, 10.62, 10.21, 10.21, 10.42, 9.92, 9.42, 8.68, 9.35, 11.34, 11.62, 9.71, 8.4, 8.0, 8.28, 8.28, 8.4, 8.0, 7.48, 6.95, 6.67, 5.75, 5.21, 4.65, 4.37, 3.43, 3.72, 3.6, 3.2, 3.39, 1.7, 3.82, 1.6, 1.79, 1.79, 1.79, 1.58, 1.74, 2.97, 8.05, 10.62, 11.18, 9.58, 7.89, 4.93, 3.97, 5.36, 7.45, 7.33, 6.85, 6.55, 6.55, 7.45, 7.01, 6.11, 4.88, 4.47, 5.36, 4.24, 3.45, 3.07, 3.07, 6.98, 6.98, 6.98, 7.3, 7.3, 7.3, 7.6, 7.9, 8.19, 8.19, 8.19, 8.19, 8.45, 8.78, 8.78, 8.78, 9.02, 9.02, 9.37, 9.86, 9.86, 9.86, 9.86, 9.86, 9.86, 10.04, 10.04, 10.3, 10.13, 10.13, 9.76, 9.76, 10.16, 10.16, 10.16, 10.4, 10.4, 10.4, 10.0, 10.21, 10.21, 10.11, 9.71, 9.48, 10.55, 11.6, 11.12, 8.79, 7.71, 7.48, 7.48, 7.61, 7.61, 7.23, 7.23, 6.95, 6.41, 5.49, 5.21, 4.65, 4.07, 3.48, 3.14, 3.72, 3.82, 3.82, 3.58, 3.82, 1.34, 1.7, 1.79, 1.79, 1.9, 1.6, 1.99, 4.43, 7.89, 9.11, 7.45, 4.02, 3.07, 4.0, 7.73, 9.68, 10.37, 9.58, 7.48, 7.48, 7.48, 7.92, 7.48, 6.67, 4.88, 4.92, 3.74, 2.91, 2.91, 2.91, 6.98, 6.98, 6.98, 7.3, 7.3, 7.3, 7.3, 8.19, 8.19, 8.19, 8.19, 8.19, 8.45, 8.45, 8.78, 8.78, 9.02, 9.02, 9.3, 9.86, 9.86, 9.86, 9.86, 9.86, 9.86, 9.86, 10.04, 10.3, 10.13, 10.13, 9.76, 9.76, 9.76, 10.02, 10.02, 10.02, 10.02, 10.27, 9.88, 9.88, 10.0, 10.0, 9.88, 9.88, 10.55, 11.31, 10.91, 9.7, 8.72, 8.22, 7.48, 7.48, 7.48, 6.7, 6.7, 6.7, 6.15, 5.86, 5.29, 4.71, 4.07, 3.48, 3.16, 3.72, 3.82, 4.02, 4.02, 3.58, 1.6, 0.8, 1.2, 1.79, 1.9, 3.07, 3.4, 3.91, 6.08, 7.71, 8.94, 8.82, 9.3, 11.09, 13.54, 14.11, 13.4, 11.89, 9.74, 8.46, 8.01, 8.49, 8.05, 6.71, 5.36, 7.15, 5.77, 3.51, 3.51, 3.51, 6.98, 6.98, 6.98, 7.3, 7.3, 7.3, 7.59, 7.59, 7.86, 8.19, 8.19, 8.19, 8.19, 8.45, 8.45, 8.78, 8.78, 9.3, 9.3, 9.86, 9.86, 9.86, 9.86, 9.86, 9.86, 9.86, 9.86, 9.86, 10.13, 10.13, 9.76, 9.76, 9.76, 9.76, 10.02, 10.02, 10.02, 9.63, 9.88, 9.88, 9.88, 9.88, 10.4, 10.4, 10.4, 10.4, 10.62, 10.42, 9.92, 9.01, 8.51, 7.48, 7.08, 6.95, 6.51, 6.51, 6.51, 5.93, 5.59, 4.71, 4.11, 3.48, 3.48, 2.84, 4.24, 4.02, 4.02, 1.6, 1.58, 0.8, 1.34, 1.7, 2.21, 3.07, 4.11, 3.22, 4.41, 8.49, 11.08, 11.75, 12.49, 14.66, 16.65, 16.04, 13.88, 12.66, 11.89, 10.26, 9.39, 7.6, 9.83, 4.92, 6.26, 7.6, 7.15, 4.02, 4.02, 4.02, 6.98, 6.98, 6.98, 7.3, 7.59, 7.59, 7.59, 7.59, 7.86, 7.86, 7.86, 8.19, 8.19, 8.45, 8.45, 8.45, 9.08, 9.3, 9.3, 9.3, 9.5, 9.86, 9.86, 9.86, 9.86, 9.86, 9.86, 9.86, 10.13, 10.13, 9.76, 9.76, 9.76, 9.76, 9.76, 10.02, 10.02, 9.63, 9.63, 9.63, 9.63, 9.63, 10.02, 10.27, 10.4, 10.4, 10.4, 10.0, 10.11, 9.6, 8.68, 8.15, 7.48, 6.95, 6.41, 6.15, 5.88, 5.65, 5.59, 5.01, 4.71, 3.79, 3.48, 3.43, 3.2, 4.47, 4.47, 1.79, 1.79, 1.7, 1.79, 1.7, 2.12, 2.8, 2.6, 3.13, 5.31, 8.9, 10.45, 9.65, 10.86, 15.12, 17.38, 16.25, 14.56, 12.92, 12.35, 12.05, 10.73, 10.28, 8.43, 5.32, 5.32, 7.11, 7.56, 5.36, 5.36, 5.36, 6.69, 6.69, 6.69, 7.59, 7.59, 7.59, 7.59, 7.59, 7.59, 7.86, 7.86, 7.86, 8.19, 8.19, 8.45, 8.45, 8.73, 9.08, 9.3, 9.3, 9.3, 9.5, 9.5, 9.86, 9.86, 9.86, 9.86, 9.86, 10.13, 9.76, 9.76, 9.76, 9.76, 9.76, 9.76, 9.76, 9.76, 9.63, 9.63, 9.63, 9.63, 9.63, 9.63, 9.63, 9.88, 9.88, 10.4, 9.88, 9.88, 9.35, 8.96, 8.68, 8.15, 7.23, 6.15, 6.15, 5.93, 5.65, 5.06, 5.01, 4.43, 4.11, 3.49, 3.16, 3.35, 4.24, 4.47, 4.47, 4.02, 1.7, 1.86, 1.26, 1.7, 2.24, 2.68, 3.13, 5.36, 7.56, 7.89, 6.39, 8.3, 13.43, 17.22, 16.4, 15.2, 13.7, 12.44, 11.62, 10.73, 5.77, 4.85, 4.41, 4.73, 6.55, 7.48, 6.66, 6.66, 6.66, 6.69, 6.69, 6.97, 6.97, 7.27, 7.27, 7.59, 7.59, 7.59, 7.86, 7.86, 7.86, 7.86, 8.19, 8.45, 8.73, 8.73, 8.73, 9.3, 9.3, 9.3, 9.3, 9.5, 9.5, 9.86, 9.86, 9.86, 10.13, 9.76, 9.76, 9.76, 9.76, 9.76, 9.76, 9.76, 9.76, 9.76, 9.38, 9.63, 9.63, 9.63, 9.63, 9.63, 9.63, 9.63, 9.88, 9.88, 9.88, 9.48, 9.35, 8.82, 8.43, 7.9, 7.61, 6.7, 6.15, 5.93, 5.59, 5.06, 4.45, 4.43, 3.83, 3.49, 2.86, 2.84, 3.72, 4.24, 4.47, 4.47, 3.13, 1.79, 1.6, 2.54, 2.6, 2.68, 3.58, 3.58, 5.16, 5.69, 6.08, 7.07, 11.09, 14.39, 15.2, 15.99, 15.04, 12.44, 10.28, 7.6, 5.81, 3.97, 3.82, 4.0, 6.28, 7.06, 6.11, 6.11, 6.11, 6.97, 6.97, 6.97, 6.97, 7.27, 7.27, 7.27, 7.27, 7.59, 7.59, 7.86, 7.86, 7.86, 7.86, 8.49, 8.73, 8.73, 8.73, 8.73, 8.94, 9.3, 9.3, 9.3, 9.5, 9.76, 9.76, 9.76, 9.76, 9.76, 9.76, 9.76, 9.76, 9.76, 9.76, 9.76, 9.76, 9.76, 9.76, 9.38, 9.63, 9.63, 9.63, 9.63, 9.63, 9.63, 9.88, 9.88, 9.88, 9.35, 8.96, 8.82, 8.43, 7.9, 7.72, 7.07, 6.51, 6.15, 5.59, 5.01, 4.74, 4.12, 3.49, 3.49, 2.86, 2.23, 2.53, 3.2, 3.58, 3.58, 3.58, 2.68, 2.24, 1.7, 2.54, 2.68, 2.68, 2.68, 3.47, 4.4, 5.43, 6.0, 7.6, 9.3, 12.89, 15.54, 15.39, 9.39, 6.67, 5.81, 6.71, 6.26, 4.43, 4.0, 5.6, 6.0, 4.52, 4.52, 4.52, 6.97, 6.97, 6.97, 6.97, 6.97, 7.27, 7.27, 7.27, 7.27, 7.59, 7.86, 7.86, 7.86, 8.15, 8.15, 8.73, 8.73, 8.73, 8.73, 8.73, 8.94, 9.3, 9.3, 9.58, 9.76, 9.76, 9.76, 9.76, 9.76, 9.76, 9.76, 9.76, 9.76, 9.76, 9.76, 9.76, 9.76, 9.38, 9.38, 9.38, 9.63, 9.63, 9.48, 9.1, 9.1, 9.48, 9.35, 9.35, 9.35, 8.96, 8.82, 8.27, 7.9, 7.35, 6.79, 6.7, 6.51, 5.93, 5.35, 4.74, 3.83, 3.49, 2.86, 2.6, 2.23, 2.41, 2.98, 2.97, 3.13, 3.13, 2.24, 2.24, 2.24, 3.04, 2.54, 2.24, 2.68, 2.68, 2.6, 3.74, 4.93, 5.43, 6.44, 10.52, 15.47, 13.41, 9.81, 5.78, 3.97, 4.92, 7.57, 7.6, 5.67, 4.93, 4.09, 3.72, 3.72, 3.72, 6.97, 6.97, 6.97, 6.97, 6.97, 7.27, 7.27, 7.27, 7.27, 7.59, 7.59, 7.86, 8.15, 8.15, 8.15, 8.15, 8.38, 8.73, 8.73, 8.73, 8.94, 8.94, 9.21, 9.58, 9.58, 9.76, 9.76, 9.76, 9.76, 9.76, 9.76, 9.76, 9.76, 9.76, 9.76, 9.76, 9.21, 9.21, 9.21, 9.38, 9.38, 9.63, 9.48, 9.1, 9.1, 9.35, 9.35, 9.35, 8.96, 8.82, 8.43, 8.27, 7.9, 7.35, 6.79, 6.79, 6.23, 6.15, 5.59, 5.01, 4.43, 4.11, 3.49, 2.86, 2.23, 1.61, 2.21, 2.6, 2.23, 1.34, 1.34, 1.79, 2.68, 2.8, 2.6, 2.54, 2.12, 2.24, 2.24, 2.6, 3.95, 4.4, 5.34, 9.7, 16.93, 14.69, 11.15, 6.67, 3.53, 3.53, 6.71, 9.39, 8.01, 5.16, 3.45, 2.84, 2.84, 2.84, 6.97, 6.97, 6.97, 6.97, 6.97, 6.97, 7.27, 7.27, 7.27, 7.27, 7.59, 8.15, 8.15, 8.15, 8.15, 8.15, 8.15, 8.38, 8.73, 8.73, 8.73, 8.94, 9.21, 9.21, 9.58, 9.58, 9.76, 9.76, 9.76, 9.76, 9.76, 9.58, 9.58, 9.58, 9.21, 9.21, 9.21, 9.21, 9.21, 9.21, 9.21, 9.48, 9.48, 9.1, 9.1, 9.35, 9.35, 9.35, 8.82, 8.82, 8.43, 8.27, 7.9, 7.35, 6.79, 6.79, 6.57, 6.23, 5.93, 5.59, 5.01, 4.71, 3.79, 3.2, 2.51, 1.61, 2.84, 2.23, 1.6, 1.2, 0.95, 1.6, 2.12, 2.23, 2.53, 2.53, 1.86, 1.79, 2.24, 2.24, 2.68, 3.51, 5.59, 16.07, 17.38, 15.58, 12.5, 9.39, 5.32, 3.32, 5.64, 9.28, 9.26, 6.55, 3.82, 2.53, 2.53, 2.53, 6.97, 6.97, 6.97, 6.97, 6.97, 6.97, 7.27, 7.27, 7.27, 7.27, 7.55, 7.55, 8.15, 8.15, 8.15, 8.15, 8.15, 8.38, 8.38, 8.73, 8.73, 8.73, 9.21, 9.21, 9.21, 9.21, 9.58, 9.76, 9.76, 9.58, 9.58, 9.58, 9.21, 9.21, 9.21, 9.21, 9.21, 9.21, 9.21, 9.21, 9.48, 9.48, 9.48, 9.1, 9.1, 9.1, 9.35, 8.96, 8.82, 8.43, 8.43, 7.9, 7.35, 7.35, 7.15, 6.79, 6.79, 6.23, 6.23, 5.93, 5.35, 5.01, 4.71, 3.79, 3.16, 2.21, 2.15, 2.4, 1.7, 1.2, 1.26, 1.49, 1.58, 1.6, 1.34, 1.26, 1.6, 1.7, 2.24, 2.24, 2.24, 2.68, 10.25, 15.2, 16.99, 15.2, 12.07, 9.39, 6.67, 4.0, 5.6, 8.25, 9.33, 7.71, 4.24, 2.21, 2.21, 2.21, 6.67, 6.67, 6.67, 6.97, 6.97, 6.97, 6.97, 7.27, 7.27, 7.55, 7.55, 7.55, 7.55, 7.81, 7.81, 8.15, 8.15, 8.15, 8.38, 8.38, 8.73, 8.73, 9.01, 9.21, 9.21, 9.21, 9.21, 9.21, 9.58, 9.58, 9.21, 9.21, 9.21, 9.21, 9.21, 9.21, 9.21, 9.21, 9.48, 9.48, 9.48, 9.48, 9.1, 9.1, 9.1, 9.1, 9.35, 8.96, 8.82, 8.43, 8.27, 7.9, 7.35, 7.35, 7.15, 6.79, 6.79, 6.57, 6.23, 5.88, 5.93, 5.35, 5.01, 4.71, 4.07, 2.84, 2.44, 2.4, 1.6, 2.12, 1.86, 2.23, 2.12, 1.79, 1.2, 1.2, 1.34, 1.6, 1.86, 2.12, 1.7, 2.24, 8.05, 12.94, 15.12, 13.39, 10.28, 7.6, 4.73, 3.14, 5.36, 7.85, 8.67, 7.47, 4.0, 2.53, 2.53, 2.53, 6.35, 6.35, 6.67, 6.67, 6.67, 6.97, 6.97, 6.97, 7.55, 7.55, 7.55, 7.55, 7.55, 7.55, 7.81, 7.81, 8.15, 8.15, 8.15, 8.38, 8.38, 8.73, 8.73, 9.01, 9.21, 9.21, 9.21, 9.21, 9.21, 9.21, 9.21, 9.21, 9.21, 9.21, 9.21, 9.21, 9.21, 9.48, 9.48, 9.48, 9.1, 9.1, 9.1, 9.1, 9.1, 9.1, 9.35, 8.96, 8.82, 8.43, 8.27, 7.9, 7.35, 7.15, 6.79, 6.79, 6.79, 6.57, 6.23, 6.23, 5.65, 5.93, 5.35, 5.01, 4.37, 3.73, 2.84, 2.68, 3.07, 1.86, 2.12, 1.7, 2.12, 1.79, 2.54, 1.6, 0.89, 1.6, 1.58, 1.58, 1.26, 2.4, 5.31, 9.83, 12.96, 12.52, 9.83, 7.6, 3.98, 3.07, 3.79, 6.32, 7.2, 6.94, 4.0, 2.86, 2.86, 2.86, 6.35, 6.35, 6.35, 6.67, 6.67, 6.67, 6.67, 6.95, 7.27, 7.55, 7.55, 7.55, 7.55, 7.55, 7.55, 7.81, 7.81, 8.15, 8.15, 8.38, 8.38, 8.38, 8.73, 9.01, 9.01, 9.21, 9.21, 9.21, 9.21, 9.21, 9.21, 9.21, 9.21, 9.21, 9.21, 8.84, 8.84, 9.1, 9.1, 9.1, 9.1, 9.1, 9.1, 9.1, 9.1, 9.35, 9.35, 8.96, 8.82, 8.43, 8.27, 7.35, 7.35, 6.79, 6.79, 6.79, 6.79, 6.57, 6.23, 6.23, 5.88, 5.93, 5.59, 5.35, 4.74, 4.11, 3.48, 3.43, 3.43, 2.23, 2.23, 3.6, 1.6, 1.34, 0.89, 1.34, 1.6, 0.95, 0.8, 0.57, 1.24, 1.9, 3.74, 7.45, 11.15, 12.52, 10.73, 8.94, 6.26, 3.97, 2.53, 3.16, 5.31, 6.54, 4.66, 3.22, 3.22, 3.22, 6.35, 6.35, 6.35, 6.35, 6.67, 6.67, 6.95, 6.95, 6.95, 7.55, 7.55, 7.55, 7.55, 7.55, 7.55, 7.55, 7.81, 8.15, 8.15, 8.15, 8.38, 8.38, 8.38, 8.38, 9.01, 9.01, 9.01, 9.21, 9.21, 9.21, 9.21, 9.21, 9.21, 8.84, 8.84, 8.84, 9.1, 9.1, 9.1, 9.1, 9.1, 9.1, 8.55, 8.55, 8.82, 8.96, 8.96, 8.96, 8.82, 8.43, 8.27, 7.35, 7.35, 6.79, 6.79, 6.79, 6.79, 6.23, 6.23, 6.23, 6.23, 5.65, 5.65, 5.35, 5.01, 4.43, 4.11, 3.49, 3.2, 2.15, 2.41, 2.41, 0.8, 0.6, 0.6, 0.8, 1.58, 1.26, 1.0, 1.26, 1.86, 2.23, 3.32, 6.79, 10.93, 12.87, 12.07, 10.28, 8.94, 7.15, 3.97, 2.5, 3.49, 5.43, 5.05, 3.14, 3.14, 3.14, 6.35, 6.35, 6.35, 6.35, 6.35, 6.67, 6.95, 6.95, 6.95, 6.95, 7.55, 7.55, 7.55, 7.55, 7.55, 7.55, 7.81, 7.81, 8.15, 8.15, 8.15, 8.38, 8.38, 8.38, 8.65, 8.65, 8.65, 8.65, 8.65, 8.84, 8.84, 8.84, 8.84, 8.84, 9.1, 9.1, 9.1, 9.1, 9.1, 9.1, 8.93, 8.55, 8.55, 8.55, 8.82, 8.82, 8.82, 8.82, 8.43, 8.43, 7.9, 7.35, 7.35, 6.79, 6.79, 6.79, 6.23, 6.23, 6.23, 6.23, 6.23, 5.65, 5.65, 5.06, 5.06, 4.74, 4.12, 3.83, 3.83, 4.11, 3.49, 1.74, 0.71, 0.71, 0.71, 0.8, 1.2, 1.34, 1.79, 1.79, 2.24, 2.6, 3.74, 6.79, 10.93, 13.21, 13.39, 11.62, 10.73, 9.83, 7.6, 3.98, 3.39, 3.82, 4.0, 3.45, 3.45, 3.45, 6.35, 6.35, 6.35, 6.35, 6.35, 6.65, 6.95, 6.95, 6.95, 6.95, 6.95, 7.55, 7.55, 7.55, 7.55, 7.55, 7.55, 7.81, 7.81, 8.15, 8.15, 8.15, 8.15, 8.38, 8.65, 8.65, 8.65, 8.65, 8.65, 8.65, 8.65, 8.65, 8.93, 8.93, 8.93, 8.93, 8.93, 8.93, 8.93, 8.93, 8.55, 8.55, 8.55, 8.82, 8.43, 8.43, 8.43, 8.43, 8.68, 8.68, 8.15, 7.76, 7.35, 7.35, 6.79, 6.79, 6.23, 6.23, 6.23, 6.23, 6.23, 5.98, 5.65, 5.37, 5.06, 4.45, 4.45, 3.84, 4.12, 4.12, 3.49, 2.41, 1.24, 2.48, 1.26, 1.2, 1.34, 1.34, 1.79, 1.34, 1.79, 3.04, 4.4, 6.4, 10.25, 12.77, 13.32, 12.07, 11.18, 11.18, 9.83, 7.15, 4.47, 4.02, 4.02, 4.02, 4.02, 4.02, 6.06, 6.06, 6.06, 6.06, 6.34, 6.65, 6.95, 6.95, 6.95, 6.95, 6.95, 7.23, 7.55, 7.55, 7.55, 7.55, 7.55, 7.55, 7.81, 7.81, 7.81, 8.15, 8.44, 8.44, 8.44, 8.65, 8.65, 8.65, 8.65, 8.65, 8.93, 8.93, 8.93, 8.93, 8.93, 8.93, 8.93, 8.93, 8.55, 8.55, 8.55, 8.55, 8.43, 8.43, 8.43, 8.43, 8.43, 8.68, 8.68, 8.68, 8.15, 8.15, 7.61, 7.35, 6.79, 6.79, 6.79, 6.23, 6.23, 6.23, 6.23, 5.98, 5.65, 5.65, 5.06, 4.75, 4.45, 4.12, 3.84, 4.12, 3.83, 3.49, 3.15, 3.48, 1.6, 1.2, 0.89, 0.89, 0.89, 0.95, 1.26, 2.23, 3.83, 6.07, 9.08, 11.84, 12.42, 12.07, 11.62, 11.18, 10.28, 8.05, 5.32, 5.16, 5.44, 6.28, 6.28, 6.28, 6.06, 6.06, 6.06, 6.06, 6.34, 6.65, 6.95, 6.95, 6.95, 6.95, 6.95, 7.23, 7.55, 7.55, 7.55, 7.55, 7.55, 7.55, 7.81, 7.81, 7.81, 8.15, 8.44, 8.44, 8.44, 8.65, 8.65, 8.65, 8.65, 8.65, 8.93, 8.93, 8.93, 8.93, 8.93, 8.93, 8.93, 8.93, 8.55, 8.55, 8.55, 8.55, 8.43, 8.43, 8.43, 8.43, 8.43, 8.68, 8.68, 8.68, 8.15, 8.15, 7.61, 7.35, 6.79, 6.79, 6.79, 6.23, 6.23, 6.23, 6.23, 5.98, 5.65, 5.65, 5.06, 4.75, 4.45, 4.12, 3.84, 4.12, 3.83, 3.49, 3.15, 3.48, 1.6, 1.2, 0.89, 0.89, 0.89, 0.95, 1.26, 1.9, 3.49, 6.07, 8.55, 10.25, 11.84, 12.05, 11.62, 11.18, 10.73, 9.36, 7.89, 6.79, 7.28, 8.19, 8.19, 8.19]}, {"header": {"dx": 0.06612293990616946, "dy": 0.0552356325346848, "nx": 98, "ny": 59, "la1": 35.046912555036876, "la2": 31.78801023549047, "lo1": -121.43107172385933, "lo2": -114.95102361305473, "refTime": "2026040703", "parameterCategory": 1, "parameterNumber": 3}, "data": [-9.42, -9.42, -9.42, -9.42, -8.82, -8.82, -8.22, -7.9, -7.59, -6.97, -6.34, -5.38, -4.03, -1.6, -0.79, -0.65, -0.54, 0.0, 0.0, 0.0, 0.0, 0.0, 0.76, 0.0, 0.0, 0.0, 0.0, 0.0, 0.0, 0.78, 0.0, -1.9, -3.13, -3.13, -3.07, -2.91, -3.07, -3.07, -3.07, -3.45, -3.72, -4.46, -5.24, -6.18, -6.4, -6.97, -7.69, -7.82, -7.58, -4.0, 1.24, 3.32, 4.09, 3.72, 3.11, 2.35, 2.4, 1.58, 1.52, 1.52, 1.52, 1.52, 1.52, 1.58, 1.55, 1.4, 1.49, 1.52, 1.52, 1.54, 1.5, 1.5, 1.54, 0.73, 1.58, 1.52, 1.52, 1.4, 0.77, 0.79, 0.7, 1.41, 1.27, 0.59, 0.0, 0.0, 0.0, 0.0, 0.0, 0.0, -0.59, -0.59, -0.66, -0.66, -0.63, -0.7, -0.7, -1.16, -9.42, -9.42, -9.42, -9.42, -9.08, -8.82, -8.78, -8.19, -7.59, -7.27, -6.64, -6.32, -4.16, -2.0, -2.16, -1.3, -1.2, -0.71, -1.24, -1.26, -1.2, -0.8, 0.0, 0.0, 0.0, -0.82, -0.72, -0.82, 0.0, 0.0, 0.0, -2.4, -3.13, -3.13, -3.07, -3.32, -3.45, -3.14, -3.14, -3.49, -4.46, -5.95, -7.28, -8.32, -9.23, -10.12, -10.25, -9.12, -5.52, 0.65, 4.24, 4.4, 3.79, 3.38, 2.88, 2.35, 2.4, 1.58, 1.52, 0.74, 0.74, 0.81, 0.77, 1.58, 1.49, 1.49, 1.58, 1.44, 1.52, 1.54, 1.5, 1.54, 0.74, 0.77, 0.73, 0.73, 0.77, 1.4, 0.77, 0.79, 0.7, 1.41, 1.27, 0.59, 0.0, 0.0, 0.0, 0.0, 0.0, 0.0, -0.59, -0.59, -0.66, -0.66, -0.63, -0.7, -0.7, -1.16, -9.42, -9.42, -9.42, -9.08, -9.08, -9.12, -8.78, -8.19, -8.15, -7.55, -7.25, -6.28, -4.01, -2.4, -2.0, -1.83, -1.2, -1.4, -1.9, -1.86, -2.17, -2.12, -2.23, -1.4, -0.88, -0.82, 0.0, 0.0, 0.0, 0.0, -1.2, -3.07, -3.53, -3.13, -3.07, -3.2, -3.14, -3.48, -4.12, -5.09, -6.35, -8.55, -9.66, -10.91, -10.86, -10.81, -8.76, -3.69, 0.76, 4.4, 4.84, 4.46, 3.43, 2.88, 2.88, 2.35, 1.55, 0.73, 0.77, 0.77, 0.77, 0.73, 0.8, 1.49, 1.45, 1.55, 1.49, 1.52, 1.52, 1.47, 1.5, 1.5, 0.75, 0.0, 0.0, 0.0, 0.0, 0.78, 0.69, 0.0, 0.67, 0.7, 0.73, 0.0, 0.0, 0.0, 0.0, 0.0, 0.0, -0.59, -0.59, -0.59, -1.13, -1.27, -0.66, -0.63, -0.7, -1.16, -9.42, -9.42, -9.42, -8.82, -8.82, -8.78, -8.78, -8.73, -8.15, -8.08, -7.51, -7.21, -4.74, -2.79, -2.15, -1.33, -1.33, -1.6, -2.21, -2.4, -2.4, -2.12, -2.54, -2.4, -1.9, 0.0, 0.0, 0.0, 0.0, -1.49, -2.86, -4.02, -5.16, -4.38, -3.58, -4.15, -4.6, -5.59, -6.7, -7.69, -9.3, -9.92, -9.27, -8.65, -6.88, -5.49, -0.81, 2.07, 5.09, 5.43, 4.07, 3.64, 3.11, 3.11, 2.29, 1.45, 1.49, 0.73, 0.77, 0.0, 0.0, 0.0, 0.74, 1.41, 2.2, 2.26, 1.49, 2.06, 2.01, 2.06, 2.31, 1.52, 0.76, 0.0, 0.0, 0.0, -0.71, 0.0, 0.0, 0.0, 0.0, 0.0, 0.0, 0.0, 0.0, 0.0, 0.0, 0.0, 0.0, -0.59, -0.59, -0.7, -1.13, -1.13, -1.27, -0.57, -0.63, -1.13, -9.08, -9.42, -9.42, -8.82, -8.82, -8.78, -8.78, -8.73, -8.38, -8.08, -7.73, -7.44, -5.77, -3.16, -4.11, -3.79, -2.51, -2.15, -2.86, -3.32, -3.13, -2.68, -1.6, -0.89, 0.0, 0.0, -0.85, 0.0, -0.98, -1.49, -3.84, -5.36, -7.45, -8.36, -8.94, -8.67, -8.37, -8.8, -9.3, -9.52, -8.93, -7.06, -4.36, -2.88, -2.29, 0.0, 2.66, 4.65, 4.65, 4.65, 3.72, 3.11, 2.29, 2.2, 1.63, 1.4, 0.76, 0.73, 0.0, 0.0, 0.0, 0.78, 1.35, 2.2, 2.35, 2.18, 2.31, 2.31, 2.23, 2.39, 2.25, 2.19, 1.39, 0.73, 0.0, 0.0, -0.72, -0.71, 0.0, 0.0, 0.0, 0.0, 0.0, 0.0, 0.0, 0.0, -0.59, -0.59, -0.66, -1.33, -1.16, -0.61, -1.16, -1.13, -1.13, -0.66, -0.63, -1.13, -9.08, -9.08, -9.08, -9.08, -8.82, -8.78, -8.78, -8.73, -8.65, -8.55, -8.0, -7.9, -6.39, -4.43, -3.84, -4.19, -3.84, -3.79, -4.81, -6.7, -7.6, -7.11, -4.38, -2.12, -0.89, -2.0, -2.6, -2.53, -2.95, -2.95, -3.84, -4.41, -6.26, -8.94, -9.81, -9.74, -9.54, -9.2, -9.27, -8.0, -6.0, -3.22, -2.51, -2.11, -0.69, 1.41, 3.9, 4.65, 4.65, 4.01, 2.98, 2.98, 2.29, 2.29, 1.52, 0.76, 0.76, 0.0, 0.0, 0.0, 0.0, 0.7, 2.0, 2.29, 2.12, 2.31, 2.31, 2.4, 2.26, 2.23, 2.21, 2.25, 2.25, 2.34, 1.52, 0.0, 0.0, 0.0, 0.0, 0.0, 0.0, -0.66, -1.27, -0.66, -0.59, -1.33, -1.84, -1.27, -1.27, -1.84, -1.2, -1.2, -1.33, -1.33, -1.16, -1.13, -1.35, -1.27, -9.08, -9.08, -9.08, -9.08, -9.37, -9.02, -9.3, -8.94, -9.21, -8.93, -8.43, -8.15, -7.44, -4.74, -5.37, -3.84, -4.46, -5.82, -6.08, -6.25, -6.79, -7.15, -7.71, -7.71, -7.15, -6.17, -6.64, -7.31, -6.79, -5.16, -4.34, -3.58, -4.02, -6.21, -8.38, -8.84, -9.58, -9.33, -6.99, -3.83, -2.54, -2.4, -2.53, -1.49, 0.0, 2.73, 5.06, 4.95, 4.65, 4.47, 3.45, 3.07, 2.88, 2.2, 1.63, 1.55, 0.79, 0.76, 0.73, 0.77, 0.74, 1.47, 1.41, 2.11, 2.8, 3.69, 3.91, 2.9, 2.35, 2.18, 2.35, 1.54, 2.11, 1.58, 1.48, 1.45, 1.52, 1.3, 1.35, 0.76, 0.0, -0.63, -2.0, -2.0, -2.07, -2.07, -1.84, -2.51, -2.51, -2.21, -2.5, -2.21, -2.53, -1.88, -1.2, -1.13, -1.35, -1.8, -9.08, -9.08, -9.08, -9.08, -9.37, -9.02, -9.3, -8.94, -9.21, -9.1, -8.96, -9.01, -7.82, -5.82, -6.52, -4.75, -4.75, -5.43, -4.75, -3.79, -3.07, -1.41, -2.84, -4.73, -8.49, -8.94, -9.33, -8.89, -7.15, -5.81, -6.26, -6.71, -7.15, -7.98, -8.24, -8.24, -8.38, -8.19, -5.6, -2.5, -0.63, -0.45, -0.95, -0.6, 0.8, 2.23, 3.49, 3.9, 4.56, 4.46, 3.07, 2.98, 3.11, 3.2, 2.26, 2.4, 1.49, 1.4, 0.77, 0.73, 1.55, 1.47, 1.49, 3.07, 4.81, 4.65, 4.71, 3.15, 1.55, 0.79, 0.77, 0.78, 0.75, 0.73, 0.73, 1.39, 2.28, 2.9, 2.23, 1.5, 0.68, -0.67, -1.94, -2.48, -2.79, -2.84, -2.51, -2.84, -3.14, -3.07, -2.68, -3.07, -2.68, -1.9, -1.61, -1.8, -1.94, -1.8, -9.37, -9.08, -9.08, -9.08, -9.37, -9.37, -9.3, -9.3, -9.21, -9.63, -9.88, -10.42, -10.18, -9.75, -8.4, -7.03, -7.42, -6.7, -4.46, -2.5, -1.74, -1.03, -0.8, -1.63, -4.12, -5.94, -5.73, -5.36, -6.17, -7.15, -8.94, -10.28, -11.18, -10.28, -8.91, -6.55, -5.94, -5.73, -3.51, -2.12, 0.0, 0.45, 0.0, 0.0, 0.0, 0.6, 0.71, 1.4, 2.29, 3.79, 4.71, 3.64, 3.79, 3.2, 2.9, 2.4, 2.18, 1.58, 1.52, 0.8, 1.45, 1.55, 2.15, 4.46, 5.46, 5.3, 4.0, 3.06, 0.74, 0.0, 0.0, 0.0, 0.0, 0.0, 0.67, 0.74, 0.77, 1.47, 1.5, 1.39, 1.5, 0.0, -0.64, -1.23, -2.0, -2.51, -2.84, -3.14, -3.14, -3.07, -3.32, -3.07, -3.07, -2.6, -2.21, -2.23, -2.11, -2.48, -9.37, -9.37, -9.08, -9.08, -9.37, -9.37, -9.37, -9.5, -9.76, -9.76, -10.55, -11.6, -10.68, -12.3, -11.18, -11.61, -12.3, -12.3, -12.08, -11.4, -10.7, -9.8, -8.15, -6.4, -6.87, -6.7, -4.6, -3.95, -4.92, -7.6, -7.52, -4.47, -4.02, -3.95, -6.17, -4.92, -3.2, -2.6, -1.6, -0.95, 0.0, 0.63, 0.6, 0.0, 0.0, 0.0, 0.0, 0.0, 0.61, 2.29, 3.9, 4.56, 4.56, 4.03, 4.03, 3.09, 2.18, 1.58, 0.8, 0.71, 1.6, 3.07, 6.13, 5.82, 6.44, 4.74, 3.91, 4.37, 2.04, 0.76, 0.0, 0.0, 0.0, 0.0, 0.69, 0.0, 0.0, 0.0, 0.0, 0.0, 0.0, 0.71, 0.67, 0.0, 0.0, -0.66, -2.51, -3.14, -3.07, -2.91, -2.63, -2.68, -2.68, -3.13, -3.6, -3.16, -2.66, -2.48, -9.37, -9.37, -9.08, -9.08, -9.37, -9.37, -9.59, -9.86, -9.86, -10.3, -10.83, -11.5, -11.62, -11.75, -10.96, -12.14, -13.39, -14.64, -15.25, -16.28, -17.59, -18.0, -16.7, -15.0, -13.77, -10.79, -7.95, -3.97, -3.58, -3.58, -3.13, -1.34, -0.63, -1.2, -3.07, -4.02, -3.13, -0.89, -0.6, 0.0, 0.61, 1.2, 0.71, 0.0, 0.0, 0.0, 0.0, 0.0, 0.65, 1.88, 3.07, 4.01, 4.16, 3.79, 3.2, 2.26, 1.58, 0.8, 0.0, 0.76, 3.16, 6.0, 6.8, 6.94, 7.89, 7.6, 7.06, 6.32, 4.83, 3.2, 2.4, 1.44, 1.44, 0.69, 0.0, 0.0, -0.67, -1.49, -1.58, -1.6, -0.72, 0.0, 0.0, 0.68, 0.69, 0.0, -0.57, -1.84, -1.9, -0.6, -0.63, -1.34, -2.24, -3.13, -3.39, -3.49, -3.43, -3.15, -9.37, -9.37, -9.08, -9.42, -9.42, -9.94, -9.94, -9.94, -10.41, -10.41, -10.96, -11.5, -11.62, -11.52, -10.01, -9.66, -8.55, -10.4, -12.33, -14.3, -14.23, -13.57, -13.73, -13.75, -10.18, -8.79, -6.61, -2.24, -0.89, -0.63, -0.95, -0.0, 0.6, -0.0, -0.32, -1.34, -0.89, 0.0, 0.0, 0.54, 1.4, 1.88, 1.74, 1.27, 0.0, 0.0, 0.6, 1.58, 2.23, 1.9, 1.49, 1.4, 0.7, 0.7, 0.72, 0.0, 0.0, 0.0, 0.0, 1.24, 6.21, 8.14, 7.89, 8.46, 9.83, 9.7, 8.63, 6.95, 5.38, 3.7, 2.83, 2.83, 2.06, 1.49, 0.76, 0.0, -0.76, -1.55, -2.12, -2.12, -2.26, -0.76, 0.0, 0.73, 0.69, 0.67, 0.0, 0.0, 0.0, 0.54, 0.57, 0.0, -1.2, -1.79, -2.91, -3.14, -2.86, -2.48, -9.37, -9.37, -9.08, -9.42, -9.66, -9.66, -9.94, -9.94, -10.51, -10.51, -11.07, -11.62, -11.72, -11.8, -10.69, -8.85, -6.95, -6.59, -7.81, -9.59, -9.66, -8.53, -7.9, -4.08, -1.12, 0.0, 0.0, 0.0, 0.51, 0.0, -0.95, -0.0, 0.6, 0.63, 0.45, 0.89, 0.89, 1.34, 1.2, 0.8, 1.24, 1.2, 1.2, 0.0, 0.0, 0.0, 0.89, 1.34, 0.95, 0.0, -0.57, -1.24, -2.15, -3.43, -2.99, -2.16, -0.88, 0.0, 0.0, 1.79, 6.71, 8.01, 8.36, 9.39, 9.36, 8.05, 6.36, 5.72, 3.91, 3.8, 4.0, 3.7, 3.06, 1.52, 0.0, 0.0, -1.49, -2.18, -2.6, -2.82, -2.9, -2.35, -2.12, -2.23, 0.0, 0.0, 0.0, 0.0, 1.13, 1.61, 1.2, 0.54, 0.0, -0.6, -1.24, -1.61, -1.8, -1.6, -9.37, -9.37, -9.42, -9.42, -9.66, -9.66, -9.66, -10.51, -10.51, -10.51, -11.07, -11.62, -11.72, -12.0, -11.52, -9.77, -7.93, -6.98, -6.98, -7.93, -7.96, -6.92, -5.32, -2.8, -1.14, 0.0, 0.0, 0.0, 0.0, -0.56, -1.0, -0.63, 0.0, 0.0, 0.89, 1.34, 1.34, 1.7, 0.95, 0.0, 0.0, 0.0, -0.57, -1.13, -1.9, 1.34, 1.34, 0.45, 0.0, -0.95, -1.26, -2.98, -4.98, -3.2, -2.6, -2.4, -2.12, -0.87, -0.98, 1.34, 5.34, 7.08, 8.05, 7.6, 6.26, 4.87, 3.58, 2.21, 2.26, 3.64, 5.49, 4.83, 2.28, 0.0, -0.72, -1.54, -1.65, -2.35, -2.35, -2.2, -2.47, -3.0, -3.6, -3.7, -2.06, -1.54, -0.74, 0.0, 1.27, 1.84, 1.88, 1.2, 0.54, 0.0, 0.0, -0.53, -0.61, 0.0, -9.37, -9.37, -9.42, -9.66, -10.01, -10.01, -10.01, -10.23, -10.23, -10.59, -10.8, -11.16, -11.72, -11.8, -11.8, -10.94, -10.09, -8.56, -7.95, -7.61, -7.96, -7.55, -6.4, -5.18, -3.44, -2.33, -1.14, -0.58, -0.59, -1.14, -1.12, -1.0, 0.0, 0.0, 1.9, 3.58, 3.82, 1.7, 1.6, 0.0, -0.71, -2.73, -2.73, -1.6, 0.0, 3.13, 3.82, 2.24, 0.0, -0.89, -2.0, -2.53, -2.21, -0.6, 0.0, -0.45, -2.68, -4.46, -2.73, 1.34, 3.83, 3.04, 3.13, 2.24, 1.79, 1.79, 0.45, 0.0, 1.26, 3.35, 4.01, 2.23, 0.0, -1.56, -3.11, -3.15, -0.73, 0.0, 0.0, 0.0, 0.0, -0.7, -1.36, -2.12, -2.72, -4.0, -2.99, -0.63, 0.61, 1.2, 1.2, 1.16, 0.65, 0.54, 0.54, 0.54, 1.58, 1.58, -9.37, -9.71, -9.66, -10.01, -10.01, -10.01, -10.01, -10.23, -10.59, -10.59, -11.16, -11.16, -11.23, -11.44, -11.44, -10.94, -10.4, -9.82, -8.59, -8.24, -7.59, -6.9, -6.4, -5.67, -4.63, -2.87, -2.38, -1.17, -0.57, -0.56, -1.12, -1.73, -1.13, 0.0, 1.13, 2.12, 3.47, 3.2, 1.27, 0.0, -1.24, -1.2, -2.2, 0.0, 0.0, 3.58, 4.24, 2.8, 1.79, 0.0, -1.9, -0.8, 0.0, 0.8, 0.6, 0.0, -2.23, -4.29, -0.85, 2.23, 3.13, 4.92, 3.82, 1.4, 0.0, 0.0, -0.89, 0.0, 1.79, 2.23, 0.7, -1.47, -3.07, -4.68, -4.6, -0.61, 2.21, 3.35, 2.88, 2.11, 2.2, 1.63, 0.74, 0.0, -0.78, -0.79, -2.79, -0.53, 0.0, 0.57, 0.54, 1.2, 1.24, 1.61, 1.88, 3.07, 3.39, 3.39, -9.94, -9.66, -10.01, -10.01, -10.01, -10.01, -10.01, -10.23, -10.59, -10.59, -11.16, -10.88, -10.88, -11.23, -11.23, -11.23, -10.4, -10.13, -9.21, -7.96, -6.92, -6.46, -5.77, -4.55, -2.92, -2.31, -1.71, -1.81, -1.18, -1.19, -1.7, -2.28, -2.21, -2.12, 0.0, 1.26, 1.58, 0.71, 0.0, -1.3, -3.48, -1.86, -1.27, 0.0, 0.0, 3.58, 3.82, 3.58, 2.8, 3.2, 2.53, 2.53, 2.84, 2.48, 1.41, 0.0, -1.23, 0.0, 2.32, 6.13, 5.75, 4.8, 2.48, 1.41, 0.0, -0.71, -1.6, -1.34, 0.0, -0.85, -3.17, -6.44, -6.97, -5.49, -1.9, 2.17, 5.75, 6.39, 5.21, 4.46, 4.46, 3.15, 2.23, 1.4, 0.0, 0.0, -0.65, 0.0, 0.0, 0.0, 0.0, 1.2, 2.4, 2.91, 3.6, 4.3, 4.43, 4.43, -9.94, -9.66, -10.01, -10.01, -10.01, -10.01, -10.01, -10.23, -10.59, -10.59, -10.65, -10.65, -10.88, -10.88, -10.65, -10.65, -10.72, -10.43, -8.87, -7.57, -6.22, -6.43, -5.28, -3.41, -1.72, -1.16, -2.32, -2.44, -2.44, -2.96, -2.93, -2.94, -3.37, -2.23, -0.57, 0.0, 0.0, -0.85, -2.2, -1.8, -1.49, -1.58, -0.8, 0.0, 1.4, 3.58, 4.02, 3.82, 2.84, 3.16, 3.48, 3.48, 3.48, 2.73, 2.4, 1.14, 1.1, 2.26, 5.69, 5.93, 5.59, 3.76, 2.4, 1.19, 0.0, 0.0, -1.24, -2.12, -3.9, -6.32, -6.64, -4.94, -2.8, -1.33, 0.71, 2.8, 3.49, 3.69, 4.0, 2.99, 2.4, 1.49, 0.77, 0.0, 0.0, 0.0, 0.0, 0.54, 0.0, 0.0, 0.95, 2.5, 3.39, 3.82, 4.24, 4.3, 4.87, 4.87, -9.94, -9.66, -10.01, -10.01, -10.01, -10.01, -10.01, -10.01, -10.59, -10.3, -10.3, -10.65, -10.65, -10.65, -10.59, -10.24, -10.65, -10.09, -7.96, -6.5, -6.4, -7.0, -6.85, -5.29, -4.65, -4.3, -4.81, -5.61, -5.61, -5.3, -4.81, -4.07, -3.39, -2.26, -1.11, -1.16, -2.48, -3.84, -3.9, -2.2, -1.4, -0.65, 0.0, 0.0, 2.4, 3.79, 3.48, 2.73, 2.48, 2.48, 3.79, 3.79, 3.79, 2.4, 2.6, 3.45, 3.45, 4.47, 5.37, 4.75, 3.45, 2.32, 1.14, 0.0, 0.0, -0.76, -1.2, -2.15, -4.81, -3.91, -1.1, 0.74, 2.37, 2.31, 1.5, 0.0, 0.0, -0.74, 0.0, 0.0, -0.76, -1.52, -2.35, -1.95, -1.45, -0.76, -0.66, 0.0, 0.0, 1.24, 2.63, 3.53, 4.0, 3.82, 3.82, 3.82, 3.97, 3.97, -9.94, -9.66, -9.66, -9.66, -10.01, -10.01, -10.01, -10.01, -9.72, -10.3, -10.3, -10.3, -10.3, -10.65, -10.88, -10.06, -10.01, -9.94, -8.65, -7.44, -8.61, -9.42, -10.11, -9.49, -9.95, -10.15, -9.28, -8.4, -7.7, -6.4, -4.65, -3.39, -2.23, -1.57, -0.65, -0.71, -1.61, -2.2, -1.8, -1.12, -0.57, 0.0, 1.1, 2.26, 3.42, 3.4, 2.32, 2.6, 2.2, 2.73, 2.73, 2.98, 3.22, 3.49, 1.88, 2.51, 4.46, 3.79, 3.35, 3.45, 2.32, 1.05, 0.0, 0.0, -0.76, -0.65, 0.0, 0.0, 0.0, 2.2, 3.88, 5.38, 5.51, 3.22, 0.0, -2.22, -5.28, -6.14, -4.71, -3.06, -3.06, -2.97, -2.97, -2.18, -1.52, -1.3, -0.59, 0.0, 1.79, 3.07, 3.39, 3.58, 3.82, 3.32, 3.07, 3.07, 3.09, 3.09, -9.94, -9.94, -9.66, -9.66, -9.66, -9.66, -10.01, -10.01, -9.72, -10.06, -10.06, -10.3, -10.3, -10.65, -10.69, -10.65, -9.66, -9.94, -10.15, -11.2, -11.62, -11.7, -11.72, -11.1, -11.4, -10.76, -8.83, -8.2, -6.27, -4.08, -2.28, -1.69, -1.14, -1.13, -0.57, 0.0, -0.53, -0.55, -0.58, -0.56, 0.0, 0.55, 1.16, 2.21, 2.73, 3.17, 2.12, 2.32, 1.3, 1.19, 1.19, 2.73, 2.2, 3.22, 4.43, 2.84, 5.09, 5.09, 3.45, 1.3, 0.0, 0.0, 0.0, -1.14, 0.0, 0.6, 1.79, 2.68, 5.16, 6.64, 8.03, 7.9, 6.89, 3.12, 0.0, -4.52, -10.47, -10.55, -9.27, -6.88, -4.5, -2.97, -2.17, -0.67, -0.76, 0.0, 0.0, 0.61, 2.51, 3.53, 3.13, 3.13, 3.39, 3.39, 3.07, 3.07, 3.13, 3.13, -9.94, -9.94, -9.94, -9.66, -9.66, -9.66, -9.66, -10.01, -9.72, -9.72, -10.06, -10.06, -10.06, -10.3, -10.36, -10.36, -9.72, -10.59, -11.87, -12.6, -12.01, -10.45, -9.82, -10.13, -10.11, -8.77, -7.03, -5.28, -3.5, -1.69, -1.09, -0.55, -1.14, -1.12, -0.55, 0.0, 0.0, 0.0, 0.0, 0.0, 0.0, 0.0, 0.55, 1.16, 1.71, 2.26, 2.09, 1.23, 1.05, 1.19, 1.41, 1.41, 2.73, 3.79, 4.65, 5.75, 6.28, 7.6, 5.69, 2.2, 0.0, 0.0, 0.0, 0.0, 0.8, 2.68, 4.85, 3.97, 4.02, 5.36, 6.61, 7.64, 6.21, 3.01, -5.28, -8.87, -12.05, -12.65, -12.33, -10.41, -7.59, -5.04, -2.9, -0.73, 0.0, 0.0, 0.0, 0.0, 1.8, 4.12, 3.14, 2.91, 3.39, 3.39, 3.53, 3.53, 3.13, 3.13, -9.59, -9.59, -9.59, -9.42, -9.42, -9.42, -9.42, -9.66, -9.72, -9.72, -9.72, -10.06, -10.06, -9.77, -10.09, -9.77, -10.09, -10.69, -11.36, -11.72, -10.13, -8.22, -7.6, -8.23, -8.18, -7.7, -6.33, -4.7, -3.39, -2.32, -1.69, -1.14, -1.12, -1.1, -0.57, 0.0, 0.0, 0.0, 0.0, 0.0, 0.0, 0.0, 0.0, 0.58, 1.09, 1.63, 1.07, 0.0, 0.0, 0.0, 1.41, 2.48, 2.48, 4.8, 5.2, 6.14, 4.87, 5.86, 6.32, 3.35, 0.0, 0.0, -0.71, 0.0, 2.24, 4.87, 5.36, 3.13, 2.6, 2.12, 1.6, 0.63, 0.0, 0.0, -2.53, -5.64, -8.93, -11.2, -12.79, -12.79, -10.73, -7.64, -5.21, -3.91, -2.99, -1.45, -1.27, -0.61, 1.84, 4.74, 3.78, 2.53, 3.07, 3.39, 3.97, 3.53, 3.07, 3.07, -9.37, -9.37, -9.37, -9.37, -9.42, -9.42, -9.42, -9.42, -9.13, -9.46, -9.46, -9.72, -9.77, -9.77, -9.77, -9.77, -10.09, -10.72, -10.76, -10.77, -9.49, -7.83, -6.92, -7.16, -6.88, -7.06, -6.36, -5.67, -4.66, -4.01, -2.92, -2.37, -1.75, -1.16, -1.14, -0.55, -0.56, 0.0, 0.0, 0.0, 0.0, 0.0, 0.0, 0.0, 0.58, 0.56, 0.0, 0.0, 0.0, 1.41, 2.73, 2.73, 3.48, 4.09, 4.77, 5.2, 2.68, 2.68, 3.2, 4.19, 1.55, -0.71, -0.63, 1.7, 4.24, 6.21, 5.81, 6.71, 3.13, 2.12, -0.0, -4.22, -2.31, 0.0, 1.1, 0.0, -3.82, -7.31, -10.38, -11.99, -12.13, -10.15, -8.24, -6.95, -5.94, -5.3, -2.79, 0.0, 2.5, 4.52, 5.09, 4.09, 4.0, 3.6, 3.82, 3.39, 2.91, 2.91, -9.37, -9.37, -9.37, -9.37, -9.08, -9.08, -9.42, -9.42, -9.13, -9.13, -9.46, -9.46, -9.48, -9.77, -9.77, -9.77, -9.8, -10.43, -10.45, -10.13, -9.5, -8.2, -7.8, -7.53, -7.1, -6.43, -5.92, -5.7, -5.21, -4.66, -4.01, -2.92, -2.37, -2.32, -1.72, -1.67, -1.14, -0.55, -0.55, -0.55, 0.0, 0.0, 0.0, 0.0, 0.0, 0.0, -0.57, 0.0, 0.0, 0.53, 1.16, 2.32, 2.4, 3.48, 4.09, 4.66, 4.24, 1.34, 0.95, 0.76, 1.96, 0.0, 0.0, 2.23, 5.59, 6.21, 6.26, 6.26, 4.92, 0.45, -2.4, -4.65, -2.1, 0.75, 3.07, 3.73, 2.63, 0.0, -4.98, -8.4, -11.06, -11.3, -10.45, -9.21, -8.03, -5.05, -0.57, 2.91, 3.53, 5.81, 7.56, 7.06, 5.6, 4.09, 3.49, 3.45, 3.07, 3.07, -9.37, -9.37, -9.37, -9.37, -9.37, -9.08, -9.08, -9.42, -9.13, -9.13, -9.13, -9.46, -9.17, -9.48, -9.48, -9.48, -10.12, -10.13, -9.84, -9.5, -9.21, -8.58, -8.18, -7.76, -6.85, -6.4, -5.73, -5.25, -5.25, -4.55, -4.03, -3.5, -2.94, -2.87, -2.26, -2.3, -1.76, -1.76, -1.18, -1.14, -0.57, -0.58, 0.0, 0.0, 0.0, 0.0, 0.0, 0.0, 0.0, 0.0, 0.55, 0.57, 1.23, 1.3, 2.73, 4.09, 3.16, 2.21, 1.58, 0.0, 0.0, 1.01, 0.85, 2.24, 4.85, 5.36, 5.36, 4.47, 3.13, 1.2, -1.24, -2.99, -2.17, 0.0, 2.28, 5.45, 6.32, 3.41, -0.63, -5.34, -10.75, -12.13, -12.01, -10.45, -6.98, -1.61, 2.5, 3.97, 4.47, 5.81, 5.36, 7.98, 6.52, 4.75, 3.43, 3.16, 3.14, 3.14, -9.02, -9.02, -8.78, -8.78, -8.78, -8.82, -8.82, -8.82, -8.85, -8.85, -9.13, -9.17, -9.17, -9.17, -9.48, -9.19, -9.5, -9.82, -9.21, -9.21, -9.21, -8.58, -8.85, -8.18, -7.5, -6.4, -5.92, -5.25, -5.25, -4.58, -4.07, -3.53, -3.41, -2.9, -2.37, -2.3, -2.33, -2.33, -1.76, -1.76, -1.14, -1.14, -0.58, -0.55, 0.0, 0.0, 0.0, 0.0, 0.0, 0.0, 0.0, 0.0, 0.0, 0.0, 0.88, 0.71, 1.41, 1.27, 0.95, 0.63, 0.0, 0.0, 0.0, 2.23, 6.26, 4.47, 3.58, 1.7, 1.2, 0.0, -0.71, -2.2, -3.6, -2.39, 0.79, 3.91, 3.73, 2.76, 0.76, -3.45, -8.36, -11.72, -12.5, -10.79, -5.36, 0.0, 2.49, 3.97, 4.92, 4.47, 4.02, 3.6, 6.06, 5.0, 4.36, 3.43, 3.16, 3.16, -8.78, -8.78, -8.78, -8.78, -8.78, -8.5, -8.5, -8.82, -8.82, -8.85, -8.85, -8.56, -8.87, -9.17, -9.48, -9.19, -9.21, -9.5, -9.5, -8.86, -8.86, -8.58, -8.85, -8.18, -7.76, -6.85, -6.4, -5.73, -5.25, -4.58, -4.07, -3.53, -3.41, -2.9, -2.37, -2.3, -2.3, -2.21, -1.67, -1.67, -1.69, -1.14, -0.58, 0.0, 0.0, 0.0, 0.0, 0.0, -0.55, -0.56, 0.0, 0.0, 0.0, 0.0, 0.0, 0.0, 0.0, 0.0, 0.95, 1.2, 0.0, -0.81, -0.72, 2.21, 4.92, 6.61, 3.04, 0.6, -0.95, -0.8, -0.65, -1.47, -3.69, -4.03, -3.0, -2.23, -1.5, 0.0, 0.0, -1.2, -3.98, -6.97, -8.6, -8.66, -3.07, 0.0, 1.34, 3.13, 3.53, 3.32, 2.91, 2.5, 4.74, 4.94, 4.67, 3.32, 2.73, 2.73, -8.78, -8.78, -8.78, -8.78, -8.78, -8.5, -8.5, -8.5, -8.82, -8.53, -8.85, -8.56, -8.56, -8.87, -8.58, -8.87, -9.21, -9.21, -8.87, -8.87, -8.86, -8.86, -8.2, -8.2, -7.53, -7.53, -6.88, -6.43, -5.25, -4.74, -4.07, -4.07, -3.53, -2.87, -2.8, -2.28, -2.3, -2.3, -1.74, -1.67, -1.67, -1.14, -1.1, -0.81, 0.0, 1.12, 0.0, -0.58, -1.11, -0.56, -0.57, -0.58, -0.56, -0.57, -0.53, -0.55, 0.0, 0.0, 0.6, 0.6, 0.0, -1.41, -0.61, 2.4, 3.97, 5.59, 5.75, 2.23, -0.63, -1.7, -1.49, -1.52, -1.6, -3.8, -7.59, -9.23, -6.79, -3.79, -1.27, -0.61, -2.17, -4.02, -4.89, -3.99, -2.17, -0.95, 0.0, 0.63, 1.26, 0.99, 1.26, 1.9, 2.07, 3.97, 3.91, 3.97, 2.6, 2.6, -8.78, -8.78, -8.78, -8.78, -8.78, -8.5, -8.5, -8.5, -8.5, -8.53, -8.53, -8.56, -8.56, -8.87, -8.58, -8.87, -8.59, -8.87, -8.87, -8.87, -8.59, -8.86, -8.22, -7.95, -7.55, -7.55, -7.13, -6.22, -5.77, -5.08, -4.74, -4.07, -3.53, -3.41, -2.9, -2.93, -2.28, -2.28, -2.3, -1.74, -1.67, -1.18, -1.14, -1.11, -0.57, 0.0, 0.0, -1.16, -1.61, -1.12, -1.14, -1.14, -1.1, -1.12, -1.14, -1.16, -1.19, -1.08, 0.0, 0.0, -0.54, -1.33, 0.0, 2.6, 3.04, 3.04, 3.97, 4.0, 0.57, -1.86, -2.86, -2.2, 0.0, 0.0, -5.2, -8.56, -8.76, -5.94, -2.98, -0.63, -0.59, -1.79, -2.24, -2.24, -2.0, -1.16, 0.0, 0.0, -0.54, 0.0, 0.0, 1.24, 1.33, 3.11, 3.4, 3.4, 2.9, 2.9, -8.78, -8.78, -8.78, -8.78, -8.78, -8.22, -8.22, -8.22, -8.22, -8.24, -8.24, -8.53, -8.56, -8.56, -8.58, -8.87, -8.59, -8.59, -8.59, -8.59, -8.22, -8.22, -8.22, -7.83, -7.55, -7.31, -6.9, -6.46, -5.11, -5.08, -5.25, -4.55, -4.07, -3.41, -3.44, -2.93, -2.82, -2.28, -2.3, -1.74, -1.74, -1.67, -1.69, -1.73, -1.67, -2.47, -2.41, -1.65, -1.2, -0.54, -0.61, -0.55, -0.55, -1.16, -1.07, -1.73, -1.73, -1.73, -1.08, -0.65, -0.87, -0.65, 1.24, 1.86, 1.58, 1.6, 1.34, 1.2, 0.76, -0.87, -2.5, -1.26, 0.76, 2.41, 0.0, -4.52, -7.58, -6.87, -4.6, -2.99, -1.36, -1.35, -1.6, -1.16, -0.57, 0.0, 0.55, 0.67, 0.0, 0.0, 0.0, 0.57, 0.61, 1.35, 2.06, 2.75, 2.82, 2.82, -8.45, -8.45, -8.45, -8.45, -8.19, -7.9, -8.22, -8.22, -8.22, -7.93, -8.24, -8.24, -8.24, -8.56, -8.58, -8.58, -8.87, -8.23, -8.23, -8.23, -8.23, -7.96, -7.96, -7.57, -7.57, -7.16, -6.92, -6.27, -5.6, -5.36, -5.28, -5.08, -4.58, -4.1, -3.44, -2.8, -2.93, -2.82, -2.39, -2.3, -1.74, -1.67, -1.76, -1.71, -2.25, -2.9, -2.84, -1.14, -0.56, -0.56, -0.57, -0.53, -0.54, -0.55, -0.57, -1.11, -1.58, -1.76, -1.76, -1.57, -0.87, 0.0, 1.58, 1.24, 1.24, 0.57, 0.0, -0.89, -1.49, -1.66, -0.65, 0.89, 0.89, 0.0, 0.0, -2.28, -6.2, -6.97, -6.05, -4.12, -2.76, -0.7, 0.0, 0.0, 0.55, 1.12, 1.14, 1.69, 0.74, 0.7, 0.0, 0.0, 0.0, 0.0, 1.4, 2.0, 2.0, 2.0, -8.45, -8.45, -8.19, -8.19, -8.19, -7.9, -7.9, -8.22, -8.22, -7.93, -7.93, -8.24, -8.24, -7.95, -7.96, -8.24, -8.24, -8.24, -7.96, -7.96, -8.23, -7.96, -7.57, -7.57, -7.57, -6.92, -6.92, -6.92, -6.27, -5.6, -5.2, -4.68, -4.48, -4.13, -3.44, -3.32, -2.93, -2.82, -2.28, -2.3, -2.3, -2.3, -1.76, -1.69, -2.23, -2.33, -2.21, -1.67, -1.14, -1.16, -1.14, -1.16, -1.1, -1.14, -0.59, -0.63, -0.59, -1.16, -1.13, -1.11, -1.11, 1.0, 1.27, 0.71, 1.24, 0.57, 0.0, 0.0, -1.24, -0.76, 0.61, 2.23, 0.63, -1.49, -3.07, -2.36, -3.73, -4.01, -2.15, -1.36, -0.7, 0.0, 1.36, 1.36, 1.09, 0.56, 0.56, 1.12, 2.21, 1.23, 0.76, 0.0, 0.0, 0.0, 0.0, 0.76, 0.69, 0.69, -8.19, -8.19, -8.19, -8.19, -8.19, -7.9, -7.9, -8.22, -8.22, -8.22, -7.93, -8.24, -8.24, -7.95, -8.24, -7.96, -7.96, -8.24, -7.96, -7.96, -7.59, -7.59, -7.59, -7.32, -7.32, -7.19, -7.19, -6.92, -6.9, -5.83, -5.2, -4.54, -4.05, -4.02, -3.47, -3.47, -2.82, -2.82, -2.82, -2.39, -2.3, -2.3, -2.21, -2.33, -2.33, -2.33, -2.21, -1.67, -1.76, -1.71, -1.73, -1.67, -1.69, -1.61, -1.1, -1.14, -0.54, -0.57, -0.53, -0.61, 0.0, 0.0, 1.4, 1.6, 0.8, 0.6, 0.6, 0.0, 0.0, 0.0, 0.65, 1.49, 0.0, -3.8, -6.09, -3.86, -0.79, 0.76, 1.41, 0.67, 0.0, 0.0, 0.0, 0.0, -0.69, 0.0, 0.0, 1.05, 2.12, 1.88, 1.23, 0.79, 0.0, -0.73, -0.61, 0.0, 0.0, 0.0, -8.19, -8.19, -8.19, -8.19, -8.19, -7.9, -7.9, -7.9, -8.22, -8.22, -7.93, -7.93, -8.24, -7.95, -7.95, -7.96, -7.6, -7.6, -7.59, -7.59, -7.59, -7.59, -7.59, -7.59, -7.19, -7.19, -7.19, -6.92, -6.92, -6.25, -5.17, -4.51, -4.72, -4.02, -4.02, -3.5, -3.5, -2.96, -2.84, -2.84, -2.3, -2.3, -2.21, -2.33, -2.21, -2.3, -2.3, -2.3, -2.33, -2.35, -2.39, -2.3, -2.33, -2.37, -2.23, -1.73, -1.65, -1.16, -0.57, -1.24, -0.57, 0.0, 0.0, 1.4, 1.4, 1.4, 0.6, 0.0, 0.0, 0.0, 0.0, 0.0, 0.0, -1.52, -3.91, -2.37, 1.51, 4.66, 4.66, 2.35, 0.0, -2.16, -2.85, -2.85, -2.09, -0.55, 0.54, 1.49, 1.41, 1.26, 0.61, 0.0, 0.0, -0.7, -1.35, -1.84, -0.65, -0.65, -8.19, -8.19, -8.19, -8.19, -8.19, -8.19, -7.9, -7.9, -7.9, -8.22, -7.93, -7.93, -7.93, -7.61, -7.61, -7.61, -7.6, -7.6, -7.6, -7.59, -7.59, -7.59, -7.59, -6.94, -6.94, -6.94, -6.94, -6.68, -6.27, -6.27, -5.83, -5.17, -4.68, -4.51, -4.02, -3.86, -3.37, -3.37, -2.84, -2.84, -2.84, -2.21, -2.33, -1.76, -1.67, -2.3, -2.28, -2.96, -2.99, -2.9, -2.93, -2.97, -2.86, -2.89, -2.73, -2.26, -2.29, -1.8, -1.7, -1.61, -1.24, 0.0, 0.0, 0.6, 0.8, 1.27, 0.57, 0.0, 0.0, 0.0, -0.6, 0.0, 0.0, 0.73, 0.0, -0.76, 0.76, 2.35, 2.32, 0.0, -1.38, -2.76, -3.47, -2.82, -1.36, 0.0, 0.67, 0.67, 0.67, 0.64, 0.0, 0.0, -0.7, -1.55, -1.88, -1.98, -1.32, -1.32, -8.19, -8.19, -8.19, -8.19, -8.19, -8.19, -7.9, -7.9, -7.9, -8.22, -7.93, -7.93, -7.61, -7.61, -7.61, -7.61, -7.33, -7.6, -7.6, -7.33, -7.33, -7.33, -6.94, -6.94, -6.94, -6.94, -6.94, -6.53, -6.53, -6.53, -5.62, -5.62, -5.17, -5.17, -4.51, -4.02, -3.86, -3.53, -3.53, -2.87, -2.87, -2.87, -2.25, -1.62, -1.1, -1.67, -2.82, -3.34, -3.37, -3.39, -3.45, -3.49, -3.52, -3.05, -2.73, -2.75, -2.96, -2.29, -2.4, -2.23, -1.61, -1.24, 0.0, 0.0, 0.0, 0.0, 0.0, 0.0, 0.0, -0.6, -0.6, 0.0, 0.71, 2.17, 0.78, -1.51, -2.99, -3.04, -3.87, -4.23, -3.58, -2.82, -2.01, -1.4, -0.64, 0.0, 0.0, 0.0, 0.0, 0.0, 0.0, 0.0, -0.63, -1.47, -2.4, -2.6, -2.8, -2.12, -7.86, -7.86, -7.86, -7.86, -8.19, -8.19, -7.9, -7.9, -7.9, -7.9, -7.93, -7.61, -7.61, -7.61, -7.33, -7.61, -7.61, -7.33, -7.6, -7.6, -7.33, -6.94, -6.94, -6.94, -6.94, -6.94, -6.94, -6.53, -6.29, -6.29, -5.86, -5.86, -5.62, -5.17, -5.17, -4.51, -4.02, -4.05, -4.05, -3.39, -3.39, -2.9, -2.8, -1.6, -1.16, -1.74, -3.47, -3.99, -4.02, -4.08, -4.12, -3.49, -3.32, -3.35, -3.37, -2.92, -2.96, -2.77, -2.82, -2.61, -2.48, -1.61, 0.0, 0.0, 0.0, 0.0, 0.0, 0.0, 0.0, -0.8, -0.6, 0.0, 0.0, 0.0, 0.0, -0.74, -2.95, -5.4, -6.32, -6.34, -5.02, -2.76, -1.43, -0.71, 0.0, 0.0, 0.0, 0.0, 0.0, 0.0, 0.0, -0.61, -1.23, -1.47, -2.2, -2.66, -2.66, -2.8, -8.15, -8.15, -7.86, -7.86, -7.86, -8.19, -7.9, -7.9, -7.9, -7.9, -7.6, -7.61, -7.61, -7.61, -7.61, -7.33, -7.61, -7.61, -7.33, -7.6, -7.22, -6.94, -6.94, -6.94, -6.94, -6.94, -6.94, -6.29, -6.29, -6.29, -5.86, -5.86, -5.86, -5.4, -5.2, -5.2, -4.51, -4.72, -4.05, -4.05, -3.89, -3.42, -3.45, -3.52, -3.11, -2.82, -4.1, -5.17, -4.76, -4.6, -3.94, -4.16, -3.97, -3.8, -3.37, -3.4, -3.42, -3.22, -3.04, -3.08, -2.86, -2.23, -1.16, -1.13, 0.0, 0.0, -0.57, -0.57, -0.8, -0.57, 0.0, 0.0, -1.6, -1.4, 0.0, 2.22, 1.5, -1.52, -3.82, -4.94, -4.32, -2.06, -0.67, 0.0, 0.69, 0.71, 1.36, 1.4, 0.67, 0.69, 0.0, 0.0, -0.63, -1.35, -2.2, -2.73, -2.48, -2.66, -8.15, -8.15, -7.86, -7.86, -7.86, -7.86, -8.19, -7.9, -7.9, -7.6, -7.6, -7.32, -7.61, -7.61, -7.61, -7.33, -7.33, -7.61, -7.33, -6.96, -7.22, -7.22, -7.22, -6.94, -6.94, -6.94, -6.7, -6.29, -6.29, -6.29, -6.06, -5.64, -5.64, -5.64, -5.2, -5.2, -5.2, -4.72, -4.54, -4.54, -4.05, -4.08, -4.12, -4.63, -5.26, -5.29, -4.65, -4.57, -4.2, -4.0, -4.42, -4.42, -4.2, -4.0, -4.03, -4.05, -3.64, -3.45, -3.47, -3.49, -3.12, -2.86, -2.48, -1.8, -1.6, -1.13, -0.57, -1.27, -0.8, 0.0, 0.0, 0.0, -1.58, -2.6, -0.99, 0.0, 1.52, 0.0, -2.21, -3.15, -2.11, -0.66, 0.0, 1.49, 2.0, 2.06, 1.45, 1.45, 1.49, 1.4, 1.36, 0.61, 0.0, 0.0, -1.41, -2.07, -1.84, -1.84, -8.15, -8.15, -8.15, -7.86, -7.86, -7.86, -8.19, -7.9, -7.6, -7.6, -7.6, -7.6, -7.32, -7.61, -7.61, -7.61, -7.33, -7.33, -7.61, -6.96, -6.96, -6.96, -6.96, -6.96, -6.96, -6.7, -6.7, -6.29, -6.56, -6.56, -6.31, -6.31, -5.64, -5.64, -5.64, -5.2, -5.2, -5.2, -5.0, -4.54, -4.54, -4.76, -4.57, -5.02, -5.86, -5.8, -4.68, -3.3, -3.56, -4.03, -4.03, -4.69, -4.69, -4.45, -4.45, -4.05, -4.08, -3.85, -3.47, -3.49, -3.49, -3.48, -2.51, -2.48, -1.27, -1.27, 0.0, -1.27, 0.0, 0.57, 0.0, 0.0, -1.9, -3.2, -4.98, -4.43, -3.15, -2.28, -1.49, 0.0, 0.61, 2.0, 3.51, 3.46, 2.76, 2.21, 1.36, 1.36, 1.36, 1.44, 1.36, 0.67, 0.61, 0.0, -1.49, -1.16, -1.16, -1.16, -8.15, -8.15, -8.15, -7.86, -7.86, -7.86, -7.86, -7.6, -7.6, -7.6, -7.6, -7.6, -7.32, -7.32, -7.61, -7.61, -7.33, -7.33, -6.97, -6.96, -6.96, -6.96, -6.96, -6.96, -6.96, -6.96, -6.7, -6.29, -6.56, -6.56, -6.31, -6.31, -6.31, -5.89, -5.89, -5.89, -5.89, -5.44, -5.23, -5.23, -5.0, -5.0, -5.23, -5.23, -5.86, -5.36, -4.02, -3.42, -3.49, -3.52, -4.03, -4.03, -4.03, -4.46, -4.46, -4.46, -4.47, -4.1, -4.12, -4.12, -3.49, -3.48, -3.16, -2.48, -1.27, 0.0, 0.0, 0.0, 0.8, 1.6, 0.6, 0.0, -1.9, -3.84, -6.8, -7.03, -4.56, -2.31, 0.0, 3.21, 6.2, 8.31, 7.84, 5.64, 3.53, 2.1, 1.39, 0.71, 0.73, 0.0, 0.0, 0.0, 0.0, 0.0, -0.72, -0.7, -0.7, -0.7, -8.15, -8.15, -8.15, -7.86, -7.86, -7.86, -7.59, -7.59, -7.3, -7.6, -7.6, -7.6, -7.6, -7.32, -7.32, -7.61, -7.61, -6.97, -6.97, -6.96, -6.96, -6.96, -6.96, -6.96, -6.96, -6.96, -6.96, -6.96, -6.56, -6.56, -6.31, -6.31, -6.31, -6.31, -5.89, -5.89, -5.89, -5.67, -5.23, -5.23, -5.23, -5.23, -5.2, -5.2, -5.2, -5.2, -4.72, -4.05, -4.08, -3.94, -3.97, -4.03, -3.81, -4.05, -4.73, -4.73, -4.73, -4.75, -4.47, -4.12, -4.11, -3.48, -3.48, -2.84, -1.41, 0.0, 0.0, 0.8, 1.58, 1.6, 0.0, -0.57, -2.21, -3.84, -4.11, -2.41, -0.73, 0.0, 1.48, 5.48, 10.15, 11.0, 8.68, 5.58, 3.47, 2.81, 2.1, 0.73, 0.0, 0.0, 0.0, 0.0, 0.0, 0.0, 0.0, 0.0, 0.0, 0.0, -8.15, -8.15, -8.15, -7.86, -7.59, -7.59, -7.59, -7.59, -7.3, -7.3, -7.3, -7.6, -7.6, -7.32, -7.32, -7.32, -7.26, -6.97, -6.97, -6.97, -6.7, -6.96, -6.96, -6.96, -6.96, -6.96, -6.96, -6.96, -6.56, -6.56, -6.31, -6.31, -6.31, -6.31, -6.31, -5.89, -5.89, -5.67, -5.67, -5.67, -5.67, -5.67, -5.89, -5.44, -5.2, -5.2, -5.2, -5.0, -4.76, -4.8, -4.63, -4.66, -4.03, -4.05, -4.08, -4.47, -4.81, -5.08, -4.47, -4.45, -4.12, -3.79, -3.48, -2.86, -1.6, 0.0, 0.0, 0.0, 0.0, 0.57, 0.0, -0.57, -0.71, -1.4, -0.65, 0.0, 0.76, 0.81, 2.41, 5.63, 9.31, 9.55, 7.11, 4.95, 4.37, 3.59, 2.06, 0.67, 0.0, 0.0, -1.05, -0.67, -0.67, -0.79, -0.76, 0.0, 0.0, 0.0, -7.81, -7.81, -7.81, -7.59, -7.59, -7.59, -7.59, -7.59, -7.59, -7.3, -7.3, -7.3, -7.6, -7.6, -7.32, -7.32, -6.98, -7.26, -6.97, -6.97, -6.97, -6.7, -6.7, -6.96, -6.96, -6.96, -6.96, -6.96, -6.56, -6.31, -6.31, -6.31, -6.31, -6.31, -6.31, -6.31, -6.31, -5.67, -5.67, -5.67, -5.67, -5.67, -5.67, -5.67, -5.23, -5.23, -5.2, -5.23, -5.23, -5.26, -5.04, -4.63, -4.66, -4.45, -4.47, -4.47, -4.75, -5.08, -5.06, -4.45, -4.43, -4.11, -4.07, -3.16, -2.23, -1.41, 0.0, 0.0, 0.0, -0.57, -1.24, -1.26, -0.57, 0.0, 0.0, 0.0, 0.0, 0.76, 3.15, 5.59, 6.79, 7.11, 6.26, 7.13, 6.52, 4.11, 1.38, 0.0, 0.0, -0.72, -0.81, -0.73, -1.35, -1.45, -1.36, -0.74, -0.74, -0.74, -7.81, -7.81, -7.55, -7.55, -7.27, -7.27, -7.59, -7.59, -7.59, -7.3, -7.3, -7.3, -7.3, -7.6, -7.32, -6.98, -6.98, -6.98, -6.97, -6.97, -6.97, -6.97, -6.7, -6.7, -6.96, -6.96, -6.96, -6.56, -6.31, -6.31, -6.31, -6.31, -6.31, -6.31, -6.31, -6.31, -6.31, -6.07, -5.67, -5.67, -5.67, -5.67, -5.67, -5.67, -5.67, -5.23, -5.23, -5.23, -5.02, -5.26, -5.29, -5.06, -5.08, -4.69, -4.46, -4.47, -4.75, -4.47, -5.06, -5.01, -4.43, -4.37, -4.07, -3.43, -2.84, -2.48, -1.41, 0.0, 0.0, 0.0, 0.0, -0.8, -0.85, -0.65, 0.0, 0.0, 0.0, 1.47, 3.55, 4.56, 4.71, 4.75, 7.2, 9.41, 8.0, 4.3, 1.38, 0.0, 0.0, 0.0, -0.66, -1.27, -2.0, -2.35, -2.82, -1.36, -1.36, -1.36, -7.55, -7.55, -7.55, -7.55, -7.27, -7.27, -7.27, -7.27, -7.59, -7.59, -7.3, -7.3, -7.3, -7.3, -7.27, -6.98, -6.98, -6.98, -6.98, -6.71, -6.97, -6.97, -6.97, -6.7, -6.31, -6.31, -6.31, -6.31, -6.31, -6.31, -6.31, -6.31, -6.31, -6.31, -6.31, -6.31, -6.31, -6.31, -6.07, -5.67, -5.67, -5.67, -5.67, -5.67, -5.67, -5.23, -5.23, -5.23, -5.26, -5.04, -5.29, -5.06, -5.08, -5.34, -4.71, -4.73, -4.47, -4.47, -4.45, -4.74, -4.71, -4.65, -4.07, -3.43, -3.35, -2.53, -1.6, 0.0, 0.0, 0.0, 0.0, 0.0, -0.57, -0.85, 0.0, 0.0, 0.0, 0.87, 2.2, 3.11, 3.0, 3.8, 6.97, 8.06, 5.65, 2.8, 0.0, -0.67, 0.0, 0.0, 0.0, -0.63, -2.0, -2.8, -3.0, -1.94, -1.94, -1.94, -7.55, -7.55, -7.55, -7.55, -7.55, -7.27, -7.27, -7.27, -7.27, -7.59, -7.3, -7.3, -7.3, -6.98, -6.98, -6.98, -6.98, -6.98, -6.98, -6.98, -6.71, -6.97, -6.97, -6.58, -6.31, -6.31, -6.31, -6.31, -6.31, -6.31, -6.31, -6.31, -6.31, -6.31, -6.31, -6.31, -6.31, -6.07, -6.07, -6.07, -5.67, -5.67, -5.92, -5.69, -5.69, -5.02, -5.26, -5.26, -5.26, -5.04, -5.29, -5.32, -5.08, -5.09, -5.1, -4.46, -4.73, -4.75, -4.75, -4.74, -4.37, -4.65, -4.0, -3.64, -3.35, -3.22, -1.98, -0.99, 0.0, 0.0, 0.0, 0.0, 0.0, -0.76, -0.85, 0.0, 0.0, 0.0, 0.65, 1.49, 2.11, 3.11, 4.03, 3.76, 2.32, 0.0, -0.7, -0.64, -0.66, 0.0, 0.69, 0.0, -1.26, -2.11, -2.73, -2.48, -2.48, -2.48, -7.55, -7.55, -7.55, -7.55, -7.55, -7.27, -7.27, -7.27, -7.27, -7.59, -7.59, -7.3, -6.98, -6.98, -6.98, -6.98, -6.7, -6.98, -6.98, -6.98, -6.71, -6.71, -6.33, -6.58, -6.58, -6.31, -6.31, -6.31, -6.31, -6.31, -6.31, -6.31, -6.31, -6.31, -6.31, -6.31, -6.33, -6.33, -6.33, -6.07, -6.07, -5.67, -5.92, -5.69, -5.69, -5.26, -5.26, -5.26, -5.04, -5.29, -5.06, -5.32, -5.08, -5.09, -5.1, -5.1, -5.1, -4.47, -4.47, -4.45, -4.43, -4.11, -4.07, -4.0, -3.35, -2.15, -2.21, -1.74, -1.49, 0.0, 0.0, 0.0, 0.0, -1.4, -1.74, -0.85, -0.71, 0.0, 0.0, 0.65, 0.79, 2.2, 2.29, 1.62, -1.41, -1.4, -0.7, -0.67, -0.59, -0.59, 0.0, 0.0, -0.73, -1.47, -2.07, -2.84, -2.84, -2.84, -7.55, -7.55, -7.55, -7.55, -7.55, -7.55, -7.27, -7.27, -7.27, -7.27, -7.59, -6.98, -6.98, -6.98, -6.98, -6.98, -6.98, -6.7, -6.98, -6.98, -6.98, -6.71, -6.33, -6.33, -6.58, -6.58, -6.31, -6.31, -6.31, -6.31, -6.31, -6.58, -6.58, -6.58, -6.33, -6.33, -6.33, -6.33, -6.33, -6.33, -6.33, -5.92, -5.92, -5.69, -5.69, -5.26, -5.26, -5.26, -5.29, -5.29, -5.06, -5.32, -5.08, -5.09, -5.1, -5.1, -5.38, -5.1, -4.75, -4.47, -4.45, -4.12, -3.79, -3.73, -3.14, -2.15, -2.84, -1.49, -0.8, -0.6, -0.95, -0.8, -0.71, -1.49, -2.53, -2.53, -1.24, 0.0, 0.0, 0.0, 0.0, 0.7, 1.6, -0.8, -1.39, -1.42, -0.69, 0.0, -0.67, -1.33, -1.41, -1.43, -1.54, -1.45, -1.27, -2.53, -2.53, -2.53, -7.55, -7.55, -7.55, -7.55, -7.55, -7.55, -7.27, -7.27, -7.27, -7.27, -6.97, -6.97, -6.98, -6.98, -6.98, -6.98, -6.98, -6.7, -6.7, -6.98, -6.98, -6.98, -6.33, -6.33, -6.33, -6.33, -6.58, -6.31, -6.31, -6.58, -6.58, -6.58, -6.33, -6.33, -6.33, -6.33, -6.33, -6.33, -6.33, -6.33, -5.92, -5.92, -5.92, -5.69, -5.69, -5.69, -5.26, -5.04, -5.29, -5.06, -5.06, -5.08, -5.09, -5.09, -5.36, -5.1, -5.1, -5.1, -5.1, -4.75, -4.75, -4.45, -4.12, -3.79, -3.16, -2.21, -1.61, -1.2, -0.57, -0.6, -1.26, -2.23, -1.58, -0.8, 0.0, -1.26, -0.8, -0.57, 0.0, 0.0, 0.0, 0.0, 0.79, 0.0, 0.0, 0.0, 0.0, 0.0, -0.67, -2.0, -2.8, -3.44, -3.11, -2.31, -1.41, -2.21, -2.21, -2.21, -7.23, -7.23, -7.23, -7.55, -7.55, -7.55, -7.55, -7.27, -7.27, -6.97, -6.97, -6.97, -6.97, -6.69, -6.69, -6.98, -6.98, -6.98, -6.7, -6.7, -6.98, -6.98, -6.61, -6.33, -6.33, -6.33, -6.33, -6.33, -6.58, -6.58, -6.33, -6.33, -6.33, -6.33, -6.33, -6.33, -6.33, -6.33, -5.92, -5.92, -5.92, -5.92, -5.69, -5.69, -5.69, -5.69, -5.26, -5.04, -5.29, -5.06, -5.32, -5.08, -5.09, -5.09, -5.36, -5.1, -5.1, -5.38, -5.1, -4.81, -4.75, -4.75, -4.45, -4.12, -3.49, -2.84, -1.95, -1.2, -0.8, -0.71, -1.24, -1.49, -0.71, 0.0, 0.6, 0.6, 0.0, -0.8, -1.24, -0.71, -0.57, 0.0, 0.0, 0.76, 1.59, 0.79, 0.0, 0.0, -1.35, -2.51, -4.02, -4.28, -3.61, -2.99, -2.0, -2.53, -2.53, -2.53, -7.51, -7.51, -7.23, -7.23, -7.23, -7.55, -7.55, -7.55, -6.97, -6.97, -6.97, -6.97, -6.97, -6.97, -6.69, -6.69, -6.98, -6.98, -6.98, -6.7, -6.7, -6.98, -6.98, -6.61, -6.33, -6.33, -6.33, -6.33, -6.33, -6.33, -6.33, -6.33, -6.33, -6.33, -6.33, -6.33, -6.33, -5.92, -5.92, -5.92, -5.69, -5.69, -5.69, -5.69, -5.69, -5.69, -5.26, -5.04, -5.29, -5.06, -5.32, -5.08, -5.09, -5.36, -5.1, -5.1, -5.1, -5.38, -5.1, -5.1, -5.08, -4.75, -4.75, -4.45, -3.83, -3.2, -2.84, -1.61, -1.84, -1.24, -0.71, -0.57, -0.71, 0.0, 0.85, 0.8, 0.0, -0.8, -1.58, -1.58, -1.26, -1.2, -0.76, 0.0, 0.0, 0.0, 0.0, 0.0, -0.57, -1.84, -3.79, -4.22, -3.6, -3.09, -2.0, -2.15, -2.15, -2.15, -7.51, -7.51, -7.51, -7.23, -7.23, -7.23, -7.23, -6.95, -7.27, -6.97, -6.97, -6.97, -6.97, -6.97, -6.97, -6.69, -6.69, -6.98, -6.98, -6.7, -6.7, -6.7, -6.98, -6.61, -6.61, -6.33, -6.33, -6.33, -6.33, -6.33, -6.33, -6.33, -6.33, -6.33, -6.33, -6.08, -6.08, -5.69, -5.69, -5.69, -5.69, -5.69, -5.69, -5.69, -5.69, -5.26, -5.26, -5.04, -5.29, -5.06, -5.32, -5.09, -5.09, -5.1, -5.1, -5.1, -5.1, -5.38, -5.1, -5.1, -4.81, -4.75, -4.47, -4.75, -4.74, -4.11, -3.48, -2.86, -2.86, -1.49, -1.49, -1.8, -0.8, 0.0, 0.0, 0.0, -0.8, -0.95, -1.6, -1.7, -1.86, -1.9, -1.49, -1.49, -0.74, 0.0, 0.0, 0.0, 0.0, -0.66, -2.53, -3.16, -3.32, -2.9, -2.66, -2.41, -2.41, -2.41, -7.51, -7.51, -7.51, -7.51, -7.23, -7.23, -6.95, -6.95, -6.95, -6.97, -6.97, -6.97, -6.97, -6.97, -6.97, -6.97, -6.69, -6.98, -6.98, -6.98, -6.7, -6.7, -6.7, -6.7, -6.61, -6.61, -6.61, -6.33, -6.33, -6.33, -6.33, -6.33, -6.33, -6.08, -6.08, -6.08, -5.69, -5.69, -5.69, -5.69, -5.69, -5.69, -5.7, -5.7, -5.29, -5.04, -5.04, -5.04, -5.29, -5.06, -5.32, -5.09, -5.09, -5.1, -5.1, -5.1, -5.1, -5.1, -5.1, -5.1, -5.1, -5.08, -5.08, -4.75, -4.45, -4.43, -4.11, -4.07, -3.73, -2.86, -3.22, -3.22, -1.6, -1.2, -1.2, -1.6, -1.58, -1.26, -2.0, -1.26, -1.24, -1.49, -1.33, -2.26, -2.34, -1.51, 0.0, 0.0, 0.0, 0.0, -0.66, -1.88, -2.79, -3.11, -2.88, -2.51, -2.51, -2.51, -7.51, -7.51, -7.51, -7.51, -7.51, -7.23, -6.95, -6.95, -6.95, -6.95, -6.97, -6.97, -6.97, -6.97, -6.97, -6.97, -6.69, -6.69, -6.98, -6.98, -6.98, -6.7, -6.7, -6.7, -6.34, -6.34, -6.34, -6.34, -6.34, -6.08, -6.08, -6.08, -6.08, -6.08, -5.69, -5.69, -5.69, -5.69, -5.69, -5.69, -5.95, -5.7, -5.7, -5.7, -5.29, -5.29, -5.29, -5.29, -5.06, -5.06, -5.08, -5.09, -5.09, -5.1, -5.1, -5.1, -5.1, -5.1, -5.1, -5.1, -5.1, -5.08, -5.08, -5.06, -5.06, -4.74, -4.71, -4.37, -4.37, -4.11, -4.07, -2.6, -2.12, -2.12, -2.12, -1.6, -0.6, 0.0, 0.0, 0.0, 0.0, -0.65, -1.49, -2.26, -2.34, -2.33, -0.79, 0.0, 0.0, 0.0, 0.0, -0.57, -1.13, -1.27, -2.0, -2.07, -2.07, -2.07, -7.51, -7.51, -7.51, -7.51, -7.51, -7.25, -6.95, -6.95, -6.95, -6.95, -6.95, -6.97, -6.97, -6.97, -6.97, -6.97, -6.97, -6.69, -6.69, -6.98, -6.98, -6.98, -6.98, -6.7, -6.34, -6.34, -6.34, -6.34, -6.34, -6.34, -6.34, -6.34, -5.95, -5.95, -5.95, -5.95, -5.95, -5.95, -5.95, -5.95, -5.7, -5.7, -5.7, -5.29, -5.06, -5.06, -5.06, -5.06, -4.63, -4.63, -4.66, -4.44, -5.09, -5.09, -5.1, -5.1, -5.1, -5.1, -5.1, -5.1, -5.1, -5.38, -5.08, -5.37, -5.06, -5.01, -5.01, -4.94, -4.71, -4.71, -4.65, -3.22, -1.86, -3.72, -1.26, -0.6, 0.0, 0.0, 0.0, 0.0, 0.0, -0.76, -2.2, -3.2, -3.16, -2.25, -1.57, 0.0, 0.0, 0.0, 0.0, 0.0, 0.0, 0.0, 0.0, 0.0, 0.0, 0.0, -7.17, -7.17, -7.17, -7.17, -6.92, -7.25, -6.95, -6.95, -6.95, -6.95, -6.95, -6.67, -6.97, -6.97, -6.97, -6.97, -6.97, -6.97, -6.69, -6.69, -6.69, -6.98, -6.63, -6.63, -6.63, -6.34, -6.34, -6.34, -6.34, -6.34, -5.95, -5.95, -5.95, -5.95, -5.95, -5.95, -5.95, -5.95, -5.7, -5.7, -5.7, -5.7, -5.06, -5.06, -5.06, -5.06, -5.06, -4.63, -4.63, -4.63, -4.66, -4.66, -4.69, -5.09, -5.1, -5.1, -5.1, -5.1, -5.1, -5.1, -5.1, -5.38, -5.08, -5.08, -5.06, -5.35, -5.01, -5.29, -4.94, -4.71, -4.37, -4.07, -3.78, -3.48, -0.8, -0.6, 0.0, 0.0, 0.0, -0.95, -1.26, -1.49, -2.3, -3.79, -3.78, -2.37, -1.55, 0.0, 0.0, 0.0, 0.0, 0.0, 0.67, 1.47, 2.04, 2.35, 2.35, 2.35, -7.17, -7.17, -7.17, -7.17, -6.92, -7.25, -6.95, -6.95, -6.95, -6.95, -6.95, -6.67, -6.97, -6.97, -6.97, -6.97, -6.97, -6.97, -6.69, -6.69, -6.69, -6.98, -6.63, -6.63, -6.63, -6.34, -6.34, -6.34, -6.34, -6.34, -5.95, -5.95, -5.95, -5.95, -5.95, -5.95, -5.95, -5.95, -5.7, -5.7, -5.7, -5.7, -5.06, -5.06, -5.06, -5.06, -5.06, -4.63, -4.63, -4.63, -4.66, -4.66, -4.69, -5.09, -5.1, -5.1, -5.1, -5.1, -5.1, -5.1, -5.1, -5.38, -5.08, -5.08, -5.06, -5.35, -5.01, -5.29, -4.94, -4.71, -4.37, -4.07, -3.78, -3.48, -0.8, -0.6, 0.0, 0.0, 0.0, -0.95, -1.26, -1.9, -2.79, -3.79, -3.88, -3.16, -2.37, -0.75, 0.0, 0.0, 0.0, 0.78, 1.58, 2.26, 2.18, 2.23, 2.23, 2.23]}]